Wetterdaten: Samstag, 22.12.2018
Datum Zeit Temp. Aussen Temp. o. S. +5cm Feuchte Auss Luftdruck Regen Sonnenschein Regendauer Solar Windben Empfang
22.12.2018 00:00 10,3 C 9,4 C 8,9 C 86 % 1005,5 hPa 0,0 l/m 0 min 0 min 0 W/m 25,7 km/h (4 Bft) 100,00 %
22.12.2018 00:02 10,3 C 9,4 C 8,9 C 86 % 1005,5 hPa 0,0 l/m 0 min 0 min 0 W/m 22,5 km/h (4 Bft) 97,30 %
22.12.2018 00:04 10,3 C 9,4 C 8,9 C 86 % 1005,5 hPa 0,0 l/m 0 min 0 min 0 W/m 19,3 km/h (3 Bft) 100,00 %
22.12.2018 00:07 10,3 C 10,0 C 8,9 C 86 % 1005,5 hPa 0,0 l/m 0 min 0 min 0 W/m 38,6 km/h (5 Bft) 100,00 %
22.12.2018 00:08 10,3 C 10,0 C 8,9 C 86 % 1005,4 hPa 0,0 l/m 0 min 0 min 0 W/m 25,7 km/h (4 Bft) 100,00 %
22.12.2018 00:10 10,3 C 9,4 C 8,9 C 86 % 1005,5 hPa 0,0 l/m 0 min 0 min 0 W/m 12,9 km/h (3 Bft) 100,00 %
22.12.2018 00:12 10,3 C 10,0 C 8,9 C 86 % 1005,5 hPa 0,0 l/m 0 min 0 min 0 W/m 19,3 km/h (3 Bft) 100,00 %
22.12.2018 00:14 10,3 C 9,4 C 8,9 C 86 % 1005,5 hPa 0,0 l/m 0 min 0 min 0 W/m 12,9 km/h (3 Bft) 100,00 %
22.12.2018 00:16 10,3 C 9,4 C 8,9 C 86 % 1005,5 hPa 0,0 l/m 0 min 0 min 0 W/m 19,3 km/h (3 Bft) 100,00 %
22.12.2018 00:18 10,3 C 10,0 C 8,9 C 86 % 1005,5 hPa 0,0 l/m 0 min 0 min 0 W/m 16,1 km/h (3 Bft) 97,87 %
22.12.2018 00:20 10,3 C 9,4 C 8,9 C 86 % 1005,5 hPa 0,0 l/m 0 min 0 min 0 W/m 16,1 km/h (3 Bft) 100,00 %
22.12.2018 00:22 10,3 C 10,0 C 8,9 C 86 % 1005,4 hPa 0,0 l/m 0 min 0 min 0 W/m 12,9 km/h (3 Bft) 100,00 %
22.12.2018 00:24 10,3 C 10,0 C 8,9 C 86 % 1005,5 hPa 0,0 l/m 0 min 0 min 0 W/m 25,7 km/h (4 Bft) 100,00 %
22.12.2018 00:26 10,3 C 10,0 C 8,9 C 86 % 1005,5 hPa 0,0 l/m 0 min 0 min 0 W/m 19,3 km/h (3 Bft) 100,00 %
22.12.2018 00:28 10,3 C 10,0 C 8,9 C 86 % 1005,6 hPa 0,0 l/m 0 min 0 min 0 W/m 12,9 km/h (3 Bft) 100,00 %
22.12.2018 00:30 10,3 C 10,0 C 8,9 C 86 % 1005,8 hPa 0,0 l/m 0 min 0 min 0 W/m 25,7 km/h (4 Bft) 100,00 %
22.12.2018 00:32 10,3 C 10,0 C 8,9 C 86 % 1005,5 hPa 0,0 l/m 0 min 0 min 0 W/m 16,1 km/h (3 Bft) 100,00 %
22.12.2018 00:34 10,3 C 10,0 C 8,9 C 86 % 1005,7 hPa 0,0 l/m 0 min 0 min 0 W/m 16,1 km/h (3 Bft) 97,87 %
22.12.2018 00:36 10,3 C 10,0 C 8,9 C 86 % 1005,7 hPa 0,0 l/m 0 min 0 min 0 W/m 12,9 km/h (3 Bft) 98,28 %
22.12.2018 00:38 10,3 C 10,0 C 8,9 C 86 % 1005,6 hPa 0,0 l/m 0 min 0 min 0 W/m 22,5 km/h (4 Bft) 97,14 %
22.12.2018 00:40 10,3 C 10,0 C 8,9 C 86 % 1005,6 hPa 0,0 l/m 0 min 0 min 0 W/m 16,1 km/h (3 Bft) 97,87 %
22.12.2018 00:42 10,3 C 10,0 C 8,9 C 86 % 1005,6 hPa 0,0 l/m 0 min 0 min 0 W/m 16,1 km/h (3 Bft) 97,87 %
22.12.2018 00:44 10,4 C 10,0 C 8,9 C 86 % 1005,6 hPa 0,0 l/m 0 min 0 min 0 W/m 19,3 km/h (3 Bft) 97,87 %
22.12.2018 00:46 10,4 C 10,0 C 8,9 C 86 % 1005,5 hPa 0,0 l/m 0 min 0 min 0 W/m 12,9 km/h (3 Bft) 97,87 %
22.12.2018 00:48 10,4 C 10,0 C 8,9 C 86 % 1005,7 hPa 0,0 l/m 0 min 0 min 0 W/m 32,2 km/h (5 Bft) 95,74 %
22.12.2018 00:50 10,4 C 10,0 C 9,4 C 86 % 1005,5 hPa 0,0 l/m 0 min 0 min 0 W/m 29,0 km/h (5 Bft) 97,83 %
22.12.2018 00:52 10,4 C 10,0 C 8,9 C 86 % 1005,7 hPa 0,0 l/m 0 min 0 min 0 W/m 19,3 km/h (3 Bft) 95,74 %
22.12.2018 00:54 10,4 C 10,0 C 8,9 C 86 % 1005,7 hPa 0,0 l/m 0 min 0 min 0 W/m 19,3 km/h (3 Bft) 97,87 %
22.12.2018 00:56 10,4 C 10,0 C 8,9 C 86 % 1005,7 hPa 0,0 l/m 0 min 0 min 0 W/m 16,1 km/h (3 Bft) 97,87 %
22.12.2018 00:58 10,4 C 10,0 C 8,9 C 86 % 1005,7 hPa 0,0 l/m 0 min 0 min 0 W/m 19,3 km/h (3 Bft) 97,87 %
22.12.2018 01:00 10,4 C 10,0 C 8,9 C 86 % 1005,7 hPa 0,0 l/m 0 min 0 min 0 W/m 29,0 km/h (5 Bft) 97,87 %
22.12.2018 01:02 10,4 C 10,0 C 8,9 C 86 % 1005,7 hPa 0,0 l/m 0 min 0 min 0 W/m 9,7 km/h (2 Bft) 97,83 %
22.12.2018 01:04 10,4 C 10,0 C 8,9 C 86 % 1005,8 hPa 0,0 l/m 0 min 0 min 0 W/m 19,3 km/h (3 Bft) 95,74 %
22.12.2018 01:06 10,4 C 10,0 C 9,4 C 86 % 1005,7 hPa 0,0 l/m 0 min 0 min 0 W/m 19,3 km/h (3 Bft) 93,62 %
22.12.2018 01:08 10,4 C 10,0 C 8,9 C 86 % 1005,7 hPa 0,0 l/m 0 min 0 min 0 W/m 12,9 km/h (3 Bft) 97,87 %
22.12.2018 01:10 10,4 C 10,0 C 8,9 C 86 % 1005,6 hPa 0,0 l/m 0 min 2 min 0 W/m 12,9 km/h (3 Bft) 97,87 %
22.12.2018 01:12 10,4 C 9,4 C 8,9 C 87 % 1005,6 hPa 0,0 l/m 0 min 2 min 0 W/m 12,9 km/h (3 Bft) 93,48 %
22.12.2018 01:14 10,4 C 9,4 C 8,9 C 87 % 1005,6 hPa 0,0 l/m 0 min 2 min 0 W/m 25,7 km/h (4 Bft) 95,74 %
22.12.2018 01:16 10,4 C 9,4 C 8,9 C 87 % 1005,5 hPa 0,0 l/m 0 min 2 min 0 W/m 16,1 km/h (3 Bft) 95,74 %
22.12.2018 01:18 10,4 C 9,4 C 8,9 C 87 % 1005,5 hPa 0,0 l/m 0 min 2 min 0 W/m 12,9 km/h (3 Bft) 97,87 %
22.12.2018 01:20 10,4 C 8,9 C 8,9 C 87 % 1005,4 hPa 0,0 l/m 0 min 0 min 0 W/m 16,1 km/h (3 Bft) 97,87 %
22.12.2018 01:22 10,4 C 9,4 C 8,9 C 87 % 1005,4 hPa 0,0 l/m 0 min 2 min 0 W/m 22,5 km/h (4 Bft) 100,00 %
22.12.2018 01:24 10,3 C 9,4 C 8,9 C 87 % 1005,6 hPa 0,0 l/m 0 min 2 min 0 W/m 22,5 km/h (4 Bft) 95,74 %
22.12.2018 01:26 10,3 C 9,4 C 8,9 C 87 % 1005,5 hPa 0,0 l/m 0 min 2 min 0 W/m 16,1 km/h (3 Bft) 97,83 %
22.12.2018 01:28 10,3 C 9,4 C 8,9 C 87 % 1005,6 hPa 0,0 l/m 0 min 0 min 0 W/m 9,7 km/h (2 Bft) 95,74 %
22.12.2018 01:30 10,3 C 9,4 C 8,9 C 87 % 1005,6 hPa 0,0 l/m 0 min 0 min 0 W/m 12,9 km/h (3 Bft) 95,74 %
22.12.2018 01:32 10,3 C 9,4 C 8,9 C 87 % 1005,7 hPa 0,0 l/m 0 min 2 min 0 W/m 19,3 km/h (3 Bft) 97,87 %
22.12.2018 01:34 10,3 C 9,4 C 8,9 C 87 % 1005,5 hPa 0,0 l/m 0 min 0 min 0 W/m 22,5 km/h (4 Bft) 97,87 %
22.12.2018 01:36 10,3 C 9,4 C 8,9 C 88 % 1005,5 hPa 0,0 l/m 0 min 2 min 0 W/m 16,1 km/h (3 Bft) 97,83 %
22.12.2018 01:38 10,3 C 8,9 C 8,9 C 88 % 1005,5 hPa 0,0 l/m 0 min 0 min 0 W/m 16,1 km/h (3 Bft) 95,74 %
22.12.2018 01:40 10,3 C 9,4 C 8,9 C 88 % 1005,5 hPa 0,0 l/m 0 min 0 min 0 W/m 22,5 km/h (4 Bft) 95,74 %
22.12.2018 01:42 10,2 C 9,4 C 8,9 C 88 % 1005,5 hPa 0,0 l/m 0 min 0 min 0 W/m 19,3 km/h (3 Bft) 97,87 %
22.12.2018 01:44 10,2 C 9,4 C 8,9 C 88 % 1005,5 hPa 0,0 l/m 0 min 2 min 0 W/m 16,1 km/h (3 Bft) 97,87 %
22.12.2018 01:46 10,2 C 8,9 C 8,3 C 88 % 1005,5 hPa 0,0 l/m 0 min 2 min 0 W/m 9,7 km/h (2 Bft) 97,87 %
22.12.2018 01:48 10,2 C 8,9 C 8,3 C 88 % 1005,5 hPa 0,0 l/m 0 min 2 min 0 W/m 16,1 km/h (3 Bft) 97,83 %
22.12.2018 01:50 10,2 C 8,9 C 8,9 C 88 % 1005,5 hPa 0,0 l/m 0 min 0 min 0 W/m 19,3 km/h (3 Bft) 97,87 %
22.12.2018 01:52 10,2 C 8,9 C 8,9 C 88 % 1005,5 hPa 0,0 l/m 0 min 0 min 0 W/m 16,1 km/h (3 Bft) 97,87 %
22.12.2018 01:54 10,2 C 9,4 C 8,9 C 88 % 1005,5 hPa 0,0 l/m 0 min 0 min 0 W/m 25,7 km/h (4 Bft) 95,74 %
22.12.2018 01:56 10,2 C 9,4 C 8,9 C 88 % 1005,5 hPa 0,0 l/m 0 min 0 min 0 W/m 12,9 km/h (3 Bft) 95,74 %
22.12.2018 01:58 10,2 C 9,4 C 8,9 C 88 % 1005,5 hPa 0,0 l/m 0 min 0 min 0 W/m 9,7 km/h (2 Bft) 95,74 %
22.12.2018 02:00 10,1 C 9,4 C 8,3 C 89 % 1005,6 hPa 0,0 l/m 0 min 0 min 0 W/m 19,3 km/h (3 Bft) 93,48 %
22.12.2018 02:02 10,1 C 9,4 C 8,3 C 89 % 1005,5 hPa 0,0 l/m 0 min 2 min 0 W/m 16,1 km/h (3 Bft) 95,74 %
22.12.2018 02:04 10,1 C 8,9 C 8,3 C 89 % 1005,5 hPa 0,0 l/m 0 min 2 min 0 W/m 16,1 km/h (3 Bft) 95,74 %
22.12.2018 02:06 10,1 C 8,9 C 8,3 C 89 % 1005,4 hPa 0,0 l/m 0 min 2 min 0 W/m 12,9 km/h (3 Bft) 97,87 %
22.12.2018 02:08 10,1 C 8,9 C 8,3 C 89 % 1005,6 hPa 0,0 l/m 0 min 2 min 0 W/m 12,9 km/h (3 Bft) 97,87 %
22.12.2018 02:10 10,0 C 8,9 C 8,3 C 89 % 1005,6 hPa 0,0 l/m 0 min 2 min 0 W/m 25,7 km/h (4 Bft) 97,87 %
22.12.2018 02:12 10,0 C 8,9 C 7,8 C 89 % 1005,6 hPa 0,0 l/m 0 min 2 min 0 W/m 12,9 km/h (3 Bft) 95,65 %
22.12.2018 02:14 10,0 C 8,3 C 7,8 C 90 % 1005,6 hPa 0,0 l/m 0 min 2 min 0 W/m 12,9 km/h (3 Bft) 97,87 %
22.12.2018 02:16 10,0 C 8,3 C 7,8 C 90 % 1005,7 hPa 0,2 l/m 0 min 2 min 0 W/m 16,1 km/h (3 Bft) 97,87 %
22.12.2018 02:18 10,0 C 8,3 C 7,8 C 90 % 1005,6 hPa 0,0 l/m 0 min 2 min 0 W/m 16,1 km/h (3 Bft) 97,87 %
22.12.2018 02:20 9,9 C 8,3 C 7,8 C 90 % 1005,6 hPa 0,0 l/m 0 min 2 min 0 W/m 12,9 km/h (3 Bft) 97,87 %
22.12.2018 02:22 9,9 C 8,3 C 7,8 C 90 % 1005,7 hPa 0,0 l/m 0 min 2 min 0 W/m 22,5 km/h (4 Bft) 95,74 %
22.12.2018 02:24 9,9 C 8,3 C 7,8 C 90 % 1005,7 hPa 0,0 l/m 0 min 2 min 0 W/m 19,3 km/h (3 Bft) 97,83 %
22.12.2018 02:26 9,9 C 8,3 C 7,8 C 91 % 1005,5 hPa 0,0 l/m 0 min 2 min 0 W/m 22,5 km/h (4 Bft) 97,87 %
22.12.2018 02:28 9,8 C 8,3 C 7,8 C 91 % 1005,4 hPa 0,0 l/m 0 min 2 min 0 W/m 16,1 km/h (3 Bft) 95,74 %
22.12.2018 02:30 9,8 C 8,3 C 7,8 C 91 % 1005,4 hPa 0,0 l/m 0 min 2 min 0 W/m 16,1 km/h (3 Bft) 97,87 %
22.12.2018 02:32 9,8 C 8,3 C 7,8 C 91 % 1005,5 hPa 0,0 l/m 0 min 2 min 0 W/m 22,5 km/h (4 Bft) 97,87 %
22.12.2018 02:34 9,8 C 8,3 C 7,8 C 91 % 1005,4 hPa 0,0 l/m 0 min 2 min 0 W/m 12,9 km/h (3 Bft) 97,83 %
22.12.2018 02:36 9,8 C 8,3 C 7,8 C 91 % 1005,5 hPa 0,0 l/m 0 min 2 min 0 W/m 19,3 km/h (3 Bft) 95,74 %
22.12.2018 02:38 9,8 C 8,3 C 7,8 C 92 % 1005,5 hPa 0,0 l/m 0 min 2 min 0 W/m 9,7 km/h (2 Bft) 97,87 %
22.12.2018 02:40 9,7 C 8,3 C 7,8 C 91 % 1005,4 hPa 0,0 l/m 0 min 2 min 0 W/m 9,7 km/h (2 Bft) 97,87 %
22.12.2018 02:42 9,7 C 8,3 C 7,8 C 92 % 1005,5 hPa 0,0 l/m 0 min 2 min 0 W/m 16,1 km/h (3 Bft) 97,87 %
22.12.2018 02:44 9,7 C 8,3 C 7,8 C 92 % 1005,5 hPa 0,0 l/m 0 min 2 min 0 W/m 16,1 km/h (3 Bft) 95,74 %
22.12.2018 02:46 9,7 C 8,3 C 7,8 C 92 % 1005,5 hPa 0,0 l/m 0 min 2 min 0 W/m 22,5 km/h (4 Bft) 93,48 %
22.12.2018 02:48 9,7 C 8,3 C 7,8 C 92 % 1005,4 hPa 0,0 l/m 0 min 2 min 0 W/m 16,1 km/h (3 Bft) 97,87 %
22.12.2018 02:50 9,7 C 8,3 C 7,8 C 92 % 1005,3 hPa 0,0 l/m 0 min 0 min 0 W/m 16,1 km/h (3 Bft) 97,87 %
22.12.2018 02:52 9,7 C 8,3 C 7,8 C 92 % 1005,4 hPa 0,0 l/m 0 min 0 min 0 W/m 16,1 km/h (3 Bft) 97,87 %
22.12.2018 02:54 9,7 C 8,3 C 7,8 C 92 % 1005,4 hPa 0,0 l/m 0 min 0 min 0 W/m 12,9 km/h (3 Bft) 97,87 %
22.12.2018 02:56 9,7 C 8,3 C 7,8 C 92 % 1005,5 hPa 0,0 l/m 0 min 0 min 0 W/m 6,4 km/h (2 Bft) 97,87 %
22.12.2018 02:58 9,7 C 8,3 C 7,8 C 92 % 1005,3 hPa 0,0 l/m 0 min 0 min 0 W/m 9,7 km/h (2 Bft) 97,83 %
22.12.2018 03:00 9,6 C 8,3 C 7,8 C 92 % 1005,3 hPa 0,0 l/m 0 min 0 min 0 W/m 9,7 km/h (2 Bft) 100,00 %
22.12.2018 03:02 9,6 C 8,3 C 7,8 C 92 % 1005,5 hPa 0,0 l/m 0 min 0 min 0 W/m 16,1 km/h (3 Bft) 97,87 %
22.12.2018 03:04 9,6 C 8,3 C 7,8 C 92 % 1005,4 hPa 0,0 l/m 0 min 0 min 0 W/m 9,7 km/h (2 Bft) 97,87 %
22.12.2018 03:06 9,6 C 8,3 C 7,8 C 92 % 1005,4 hPa 0,0 l/m 0 min 2 min 0 W/m 12,9 km/h (3 Bft) 100,00 %
22.12.2018 03:08 9,6 C 8,3 C 7,8 C 93 % 1005,3 hPa 0,0 l/m 0 min 2 min 0 W/m 16,1 km/h (3 Bft) 100,00 %
22.12.2018 03:10 9,6 C 8,3 C 7,8 C 93 % 1005,2 hPa 0,0 l/m 0 min 0 min 0 W/m 9,7 km/h (2 Bft) 100,00 %
22.12.2018 03:12 9,6 C 8,3 C 7,8 C 93 % 1005,2 hPa 0,0 l/m 0 min 0 min 0 W/m 16,1 km/h (3 Bft) 100,00 %
22.12.2018 03:14 9,6 C 8,3 C 7,8 C 93 % 1005,2 hPa 0,0 l/m 0 min 0 min 0 W/m 16,1 km/h (3 Bft) 97,87 %
22.12.2018 03:16 9,6 C 8,3 C 7,8 C 93 % 1005,1 hPa 0,0 l/m 0 min 0 min 0 W/m 9,7 km/h (2 Bft) 100,00 %
22.12.2018 03:18 9,6 C 8,3 C 7,8 C 93 % 1005,1 hPa 0,0 l/m 0 min 0 min 0 W/m 12,9 km/h (3 Bft) 100,00 %
22.12.2018 03:20 9,6 C 8,3 C 8,3 C 93 % 1005,2 hPa 0,2 l/m 0 min 0 min 0 W/m 16,1 km/h (3 Bft) 100,00 %
22.12.2018 03:22 9,6 C 8,3 C 8,3 C 93 % 1005,2 hPa 0,0 l/m 0 min 0 min 0 W/m 16,1 km/h (3 Bft) 97,83 %
22.12.2018 03:24 9,6 C 8,3 C 8,3 C 93 % 1005,1 hPa 0,0 l/m 0 min 0 min 0 W/m 12,9 km/h (3 Bft) 95,74 %
22.12.2018 03:26 9,6 C 8,3 C 8,3 C 93 % 1005,1 hPa 0,0 l/m 0 min 0 min 0 W/m 22,5 km/h (4 Bft) 97,87 %
22.12.2018 03:28 9,6 C 8,3 C 8,3 C 93 % 1005,0 hPa 0,0 l/m 0 min 0 min 0 W/m 12,9 km/h (3 Bft) 97,87 %
22.12.2018 03:30 9,6 C 8,3 C 8,3 C 93 % 1005,0 hPa 0,0 l/m 0 min 0 min 0 W/m 19,3 km/h (3 Bft) 97,87 %
22.12.2018 03:32 9,6 C 8,3 C 8,3 C 93 % 1005,0 hPa 0,0 l/m 0 min 0 min 0 W/m 9,7 km/h (2 Bft) 97,87 %
22.12.2018 03:34 9,6 C 8,3 C 8,3 C 93 % 1005,0 hPa 0,0 l/m 0 min 0 min 0 W/m 12,9 km/h (3 Bft) 97,87 %
22.12.2018 03:36 9,6 C 8,3 C 8,3 C 93 % 1005,0 hPa 0,0 l/m 0 min 0 min 0 W/m 16,1 km/h (3 Bft) 97,87 %
22.12.2018 03:38 9,6 C 8,3 C 8,3 C 93 % 1005,0 hPa 0,0 l/m 0 min 0 min 0 W/m 16,1 km/h (3 Bft) 97,87 %
22.12.2018 03:40 9,6 C 8,3 C 8,9 C 93 % 1005,0 hPa 0,0 l/m 0 min 0 min 0 W/m 22,5 km/h (4 Bft) 95,74 %
22.12.2018 03:42 9,7 C 8,3 C 8,9 C 93 % 1004,9 hPa 0,0 l/m 0 min 0 min 0 W/m 16,1 km/h (3 Bft) 91,49 %
22.12.2018 03:44 9,7 C 8,3 C 8,9 C 92 % 1004,9 hPa 0,0 l/m 0 min 0 min 0 W/m 19,3 km/h (3 Bft) 93,48 %
22.12.2018 03:46 9,7 C 8,3 C 8,9 C 92 % 1004,8 hPa 0,0 l/m 0 min 0 min 0 W/m 16,1 km/h (3 Bft) 97,87 %
22.12.2018 03:48 9,7 C 8,3 C 8,9 C 92 % 1004,8 hPa 0,0 l/m 0 min 0 min 0 W/m 19,3 km/h (3 Bft) 95,74 %
22.12.2018 03:50 9,7 C 8,3 C 8,9 C 92 % 1004,8 hPa 0,0 l/m 0 min 0 min 0 W/m 12,9 km/h (3 Bft) 95,74 %
22.12.2018 03:52 9,7 C 8,3 C 8,9 C 92 % 1004,8 hPa 0,0 l/m 0 min 0 min 0 W/m 16,1 km/h (3 Bft) 95,74 %
22.12.2018 03:54 9,7 C 8,3 C 8,9 C 92 % 1004,8 hPa 0,0 l/m 0 min 0 min 0 W/m 22,5 km/h (4 Bft) 97,87 %
22.12.2018 03:56 9,8 C 8,9 C 8,9 C 92 % 1004,8 hPa 0,0 l/m 0 min 0 min 0 W/m 29,0 km/h (5 Bft) 95,65 %
22.12.2018 03:58 9,8 C 8,9 C 8,9 C 92 % 1004,6 hPa 0,0 l/m 0 min 0 min 0 W/m 22,5 km/h (4 Bft) 91,49 %
22.12.2018 04:00 9,8 C 8,3 C 8,9 C 92 % 1004,7 hPa 0,0 l/m 0 min 0 min 0 W/m 22,5 km/h (4 Bft) 95,74 %
22.12.2018 04:02 9,8 C 8,3 C 8,9 C 92 % 1004,6 hPa 0,0 l/m 0 min 0 min 0 W/m 16,1 km/h (3 Bft) 92,31 %
22.12.2018 04:04 9,8 C 8,9 C 8,9 C 92 % 1004,5 hPa 0,0 l/m 0 min 0 min 0 W/m 12,9 km/h (3 Bft) 97,87 %
22.12.2018 04:06 9,8 C 8,3 C 8,9 C 91 % 1004,5 hPa 0,0 l/m 0 min 0 min 0 W/m 19,3 km/h (3 Bft) 97,87 %
22.12.2018 04:08 9,8 C 8,3 C 8,3 C 91 % 1004,6 hPa 0,0 l/m 0 min 2 min 0 W/m 16,1 km/h (3 Bft) 97,83 %
22.12.2018 04:10 9,8 C 8,3 C 8,3 C 91 % 1004,5 hPa 0,0 l/m 0 min 2 min 0 W/m 29,0 km/h (5 Bft) 95,74 %
22.12.2018 04:12 9,8 C 8,3 C 8,3 C 91 % 1004,5 hPa 0,0 l/m 0 min 2 min 0 W/m 22,5 km/h (4 Bft) 97,87 %
22.12.2018 04:14 9,8 C 8,3 C 8,3 C 91 % 1004,5 hPa 0,0 l/m 0 min 2 min 0 W/m 19,3 km/h (3 Bft) 95,74 %
22.12.2018 04:16 9,9 C 8,3 C 8,3 C 91 % 1004,4 hPa 0,0 l/m 0 min 2 min 0 W/m 12,9 km/h (3 Bft) 97,87 %
22.12.2018 04:18 9,9 C 8,3 C 8,3 C 91 % 1004,4 hPa 0,0 l/m 0 min 2 min 0 W/m 25,7 km/h (4 Bft) 95,74 %
22.12.2018 04:20 9,8 C 8,3 C 8,3 C 91 % 1004,3 hPa 0,0 l/m 0 min 2 min 0 W/m 25,7 km/h (4 Bft) 97,83 %
22.12.2018 04:22 9,8 C 8,3 C 8,3 C 91 % 1004,3 hPa 0,0 l/m 0 min 2 min 0 W/m 29,0 km/h (5 Bft) 95,74 %
22.12.2018 04:24 9,8 C 8,3 C 7,8 C 91 % 1004,4 hPa 0,0 l/m 0 min 2 min 0 W/m 29,0 km/h (5 Bft) 97,87 %
22.12.2018 04:26 9,8 C 8,3 C 7,8 C 91 % 1004,4 hPa 0,0 l/m 0 min 2 min 0 W/m 29,0 km/h (5 Bft) 97,87 %
22.12.2018 04:28 9,8 C 8,3 C 7,8 C 91 % 1004,3 hPa 0,0 l/m 0 min 2 min 0 W/m 29,0 km/h (5 Bft) 95,74 %
22.12.2018 04:30 9,8 C 7,8 C 7,8 C 92 % 1004,4 hPa 0,2 l/m 0 min 2 min 0 W/m 29,0 km/h (5 Bft) 95,74 %
22.12.2018 04:32 9,8 C 7,8 C 7,8 C 92 % 1004,2 hPa 0,2 l/m 0 min 2 min 0 W/m 16,1 km/h (3 Bft) 97,83 %
22.12.2018 04:34 9,8 C 7,8 C 7,8 C 92 % 1004,4 hPa 0,0 l/m 0 min 2 min 0 W/m 25,7 km/h (4 Bft) 97,87 %
22.12.2018 04:36 9,8 C 7,8 C 7,8 C 92 % 1004,4 hPa 0,2 l/m 0 min 2 min 0 W/m 25,7 km/h (4 Bft) 97,87 %
22.12.2018 04:38 9,8 C 7,8 C 7,8 C 92 % 1004,5 hPa 0,0 l/m 0 min 2 min 0 W/m 19,3 km/h (3 Bft) 100,00 %
22.12.2018 04:40 9,7 C 7,8 C 7,8 C 92 % 1004,5 hPa 0,2 l/m 0 min 2 min 0 W/m 19,3 km/h (3 Bft) 100,00 %
22.12.2018 04:42 9,7 C 7,8 C 7,8 C 92 % 1004,4 hPa 0,2 l/m 0 min 2 min 0 W/m 29,0 km/h (5 Bft) 100,00 %
22.12.2018 04:44 9,7 C 7,8 C 7,8 C 93 % 1004,3 hPa 0,2 l/m 0 min 2 min 0 W/m 35,4 km/h (5 Bft) 100,00 %
22.12.2018 04:46 9,7 C 7,8 C 7,8 C 93 % 1004,2 hPa 0,0 l/m 0 min 2 min 0 W/m 22,5 km/h (4 Bft) 100,00 %
22.12.2018 04:48 9,6 C 7,8 C 7,8 C 93 % 1003,9 hPa 0,0 l/m 0 min 2 min 0 W/m 22,5 km/h (4 Bft) 97,87 %
22.12.2018 04:50 9,6 C 7,8 C 7,2 C 93 % 1004,0 hPa 0,2 l/m 0 min 2 min 0 W/m 29,0 km/h (5 Bft) 100,00 %
22.12.2018 04:52 9,6 C 7,8 C 7,2 C 93 % 1004,0 hPa 0,0 l/m 0 min 0 min 0 W/m 19,3 km/h (3 Bft) 100,00 %
22.12.2018 04:54 9,5 C 8,3 C 7,2 C 93 % 1004,0 hPa 0,0 l/m 0 min 0 min 0 W/m 22,5 km/h (4 Bft) 100,00 %
22.12.2018 04:56 9,5 C 8,3 C 7,2 C 93 % 1004,0 hPa 0,0 l/m 0 min 0 min 0 W/m 12,9 km/h (3 Bft) 100,00 %
22.12.2018 04:58 9,5 C 8,3 C 7,2 C 93 % 1004,1 hPa 0,0 l/m 0 min 2 min 0 W/m 16,1 km/h (3 Bft) 100,00 %
22.12.2018 05:00 9,5 C 7,8 C 7,2 C 93 % 1004,0 hPa 0,0 l/m 0 min 2 min 0 W/m 16,1 km/h (3 Bft) 100,00 %
22.12.2018 05:02 9,4 C 7,8 C 7,8 C 93 % 1004,0 hPa 0,0 l/m 0 min 2 min 0 W/m 16,1 km/h (3 Bft) 100,00 %
22.12.2018 05:04 9,4 C 7,8 C 7,8 C 94 % 1004,0 hPa 0,0 l/m 0 min 2 min 0 W/m 16,1 km/h (3 Bft) 100,00 %
22.12.2018 05:06 9,4 C 7,8 C 7,8 C 94 % 1004,0 hPa 0,0 l/m 0 min 2 min 0 W/m 22,5 km/h (4 Bft) 100,00 %
22.12.2018 05:08 9,4 C 7,8 C 7,8 C 94 % 1004,1 hPa 0,0 l/m 0 min 2 min 0 W/m 22,5 km/h (4 Bft) 100,00 %
22.12.2018 05:10 9,4 C 8,3 C 7,8 C 94 % 1004,1 hPa 0,0 l/m 0 min 2 min 0 W/m 25,7 km/h (4 Bft) 100,00 %
22.12.2018 05:12 9,4 C 8,3 C 7,8 C 94 % 1004,1 hPa 0,0 l/m 0 min 2 min 0 W/m 16,1 km/h (3 Bft) 100,00 %
22.12.2018 05:14 9,4 C 8,3 C 7,8 C 94 % 1004,2 hPa 0,0 l/m 0 min 2 min 0 W/m 25,7 km/h (4 Bft) 100,00 %
22.12.2018 05:19 9,4 C 8,3 C 7,8 C 94 % 1004,1 hPa 0,0 l/m 0 min 5 min 0 W/m 25,7 km/h (4 Bft) 100,00 %
22.12.2018 05:20 9,4 C 8,3 C 7,8 C 94 % 1004,1 hPa 0,0 l/m 0 min 1 min 0 W/m 16,1 km/h (3 Bft) 100,00 %
22.12.2018 05:22 9,4 C 8,3 C 7,8 C 94 % 1004,2 hPa 0,0 l/m 0 min 2 min 0 W/m 19,3 km/h (3 Bft) 95,74 %
22.12.2018 05:24 9,4 C 8,3 C 7,8 C 94 % 1004,2 hPa 0,0 l/m 0 min 2 min 0 W/m 19,3 km/h (3 Bft) 100,00 %
22.12.2018 05:26 9,4 C 8,3 C 7,8 C 94 % 1004,2 hPa 0,0 l/m 0 min 2 min 0 W/m 22,5 km/h (4 Bft) 100,00 %
22.12.2018 05:28 9,4 C 8,3 C 7,8 C 94 % 1004,2 hPa 0,0 l/m 0 min 2 min 0 W/m 22,5 km/h (4 Bft) 100,00 %
22.12.2018 05:30 9,4 C 8,3 C 7,8 C 94 % 1004,1 hPa 0,0 l/m 0 min 2 min 0 W/m 22,5 km/h (4 Bft) 97,83 %
22.12.2018 05:32 9,4 C 8,3 C 7,8 C 94 % 1004,2 hPa 0,0 l/m 0 min 2 min 0 W/m 22,5 km/h (4 Bft) 100,00 %
22.12.2018 05:34 9,5 C 8,3 C 7,8 C 94 % 1004,2 hPa 0,0 l/m 0 min 2 min 0 W/m 25,7 km/h (4 Bft) 100,00 %
22.12.2018 05:36 9,5 C 8,3 C 7,8 C 94 % 1004,4 hPa 0,0 l/m 0 min 2 min 0 W/m 25,7 km/h (4 Bft) 100,00 %
22.12.2018 05:38 9,5 C 8,3 C 7,8 C 94 % 1004,3 hPa 0,0 l/m 0 min 2 min 0 W/m 22,5 km/h (4 Bft) 97,87 %
22.12.2018 05:40 9,5 C 8,3 C 7,8 C 94 % 1004,4 hPa 0,0 l/m 0 min 2 min 0 W/m 19,3 km/h (3 Bft) 97,87 %
22.12.2018 05:42 9,5 C 8,3 C 7,8 C 94 % 1004,5 hPa 0,0 l/m 0 min 2 min 0 W/m 19,3 km/h (3 Bft) 97,83 %
22.12.2018 05:44 9,6 C 8,3 C 7,8 C 94 % 1004,4 hPa 0,0 l/m 0 min 2 min 0 W/m 25,7 km/h (4 Bft) 97,87 %
22.12.2018 05:46 9,6 C 8,3 C 7,8 C 94 % 1004,4 hPa 0,0 l/m 0 min 2 min 0 W/m 38,6 km/h (5 Bft) 97,87 %
22.12.2018 05:48 9,6 C 8,3 C 7,8 C 94 % 1004,4 hPa 0,0 l/m 0 min 2 min 0 W/m 22,5 km/h (4 Bft) 97,87 %
22.12.2018 05:50 9,6 C 8,3 C 7,8 C 94 % 1004,4 hPa 0,0 l/m 0 min 2 min 0 W/m 16,1 km/h (3 Bft) 95,74 %
22.12.2018 05:52 9,6 C 8,3 C 7,8 C 94 % 1004,5 hPa 0,0 l/m 0 min 2 min 0 W/m 22,5 km/h (4 Bft) 97,87 %
22.12.2018 05:54 9,7 C 8,3 C 7,8 C 94 % 1004,4 hPa 0,0 l/m 0 min 2 min 0 W/m 35,4 km/h (5 Bft) 97,83 %
22.12.2018 05:56 9,7 C 8,3 C 7,8 C 94 % 1004,5 hPa 0,0 l/m 0 min 2 min 0 W/m 25,7 km/h (4 Bft) 95,74 %
22.12.2018 05:58 9,7 C 8,3 C 7,8 C 94 % 1004,5 hPa 0,0 l/m 0 min 2 min 0 W/m 25,7 km/h (4 Bft) 97,87 %
22.12.2018 06:00 9,7 C 8,3 C 7,8 C 94 % 1004,5 hPa 0,0 l/m 0 min 2 min 0 W/m 16,1 km/h (3 Bft) 95,74 %
22.12.2018 06:02 9,7 C 8,3 C 7,8 C 94 % 1004,5 hPa 0,0 l/m 0 min 2 min 0 W/m 16,1 km/h (3 Bft) 97,87 %
22.12.2018 06:04 9,7 C 8,3 C 7,8 C 94 % 1004,7 hPa 0,2 l/m 0 min 2 min 0 W/m 25,7 km/h (4 Bft) 97,83 %
22.12.2018 06:08 9,7 C 8,3 C 7,8 C 94 % 1004,8 hPa 0,0 l/m 0 min 4 min 0 W/m 32,2 km/h (5 Bft) 97,87 %
22.12.2018 06:10 9,7 C 8,3 C 7,8 C 94 % 1004,7 hPa 0,0 l/m 0 min 2 min 0 W/m 29,0 km/h (5 Bft) 95,74 %
22.12.2018 06:12 9,7 C 8,3 C 7,8 C 94 % 1004,6 hPa 0,0 l/m 0 min 2 min 0 W/m 32,2 km/h (5 Bft) 95,74 %
22.12.2018 06:14 9,7 C 8,3 C 7,8 C 94 % 1004,8 hPa 0,0 l/m 0 min 2 min 0 W/m 19,3 km/h (3 Bft) 95,74 %
22.12.2018 06:16 9,7 C 8,3 C 7,8 C 94 % 1004,7 hPa 0,0 l/m 0 min 2 min 0 W/m 22,5 km/h (4 Bft) 91,30 %
22.12.2018 06:18 9,8 C 8,3 C 7,8 C 94 % 1004,9 hPa 0,0 l/m 0 min 2 min 0 W/m 22,5 km/h (4 Bft) 91,49 %
22.12.2018 06:20 9,8 C 8,3 C 7,8 C 94 % 1004,9 hPa 0,0 l/m 0 min 2 min 0 W/m 22,5 km/h (4 Bft) 93,62 %
22.12.2018 06:22 9,8 C 8,3 C 7,8 C 94 % 1004,9 hPa 0,0 l/m 0 min 2 min 0 W/m 22,5 km/h (4 Bft) 95,74 %
22.12.2018 06:24 9,8 C 8,3 C 7,8 C 94 % 1005,0 hPa 0,0 l/m 0 min 2 min 0 W/m 25,7 km/h (4 Bft) 95,74 %
22.12.2018 06:26 9,8 C 8,3 C 7,8 C 94 % 1005,0 hPa 0,0 l/m 0 min 0 min 0 W/m 22,5 km/h (4 Bft) 95,74 %
22.12.2018 06:28 9,8 C 8,3 C 7,8 C 94 % 1005,0 hPa 0,0 l/m 0 min 0 min 0 W/m 25,7 km/h (4 Bft) 93,62 %
22.12.2018 06:30 9,8 C 8,3 C 7,8 C 94 % 1004,9 hPa 0,0 l/m 0 min 2 min 0 W/m 19,3 km/h (3 Bft) 93,48 %
22.12.2018 06:32 9,8 C 8,3 C 7,8 C 94 % 1005,2 hPa 0,0 l/m 0 min 0 min 0 W/m 22,5 km/h (4 Bft) 91,49 %
22.12.2018 06:34 9,8 C 8,3 C 7,8 C 94 % 1005,1 hPa 0,0 l/m 0 min 2 min 0 W/m 25,7 km/h (4 Bft) 91,49 %
22.12.2018 06:36 9,8 C 8,9 C 8,3 C 94 % 1005,3 hPa 0,0 l/m 0 min 0 min 0 W/m 22,5 km/h (4 Bft) 91,38 %
22.12.2018 06:38 9,8 C 8,3 C 8,3 C 94 % 1005,2 hPa 0,0 l/m 0 min 2 min 0 W/m 32,2 km/h (5 Bft) 94,44 %
22.12.2018 06:40 9,9 C 8,3 C 8,3 C 94 % 1005,3 hPa 0,0 l/m 0 min 2 min 0 W/m 25,7 km/h (4 Bft) 95,65 %
22.12.2018 06:42 9,9 C 8,3 C 7,8 C 94 % 1005,4 hPa 0,0 l/m 0 min 2 min 0 W/m 19,3 km/h (3 Bft) 95,74 %
22.12.2018 06:44 9,9 C 8,3 C 7,8 C 94 % 1005,3 hPa 0,2 l/m 0 min 2 min 0 W/m 16,1 km/h (3 Bft) 95,74 %
22.12.2018 06:46 9,9 C 8,3 C 7,8 C 94 % 1005,4 hPa 0,0 l/m 0 min 2 min 0 W/m 29,0 km/h (5 Bft) 93,62 %
22.12.2018 06:48 9,9 C 8,3 C 7,8 C 94 % 1005,3 hPa 0,2 l/m 0 min 2 min 0 W/m 19,3 km/h (3 Bft) 93,62 %
22.12.2018 06:50 9,9 C 8,3 C 7,8 C 94 % 1005,4 hPa 0,2 l/m 0 min 2 min 0 W/m 25,7 km/h (4 Bft) 95,74 %
22.12.2018 06:52 9,8 C 8,3 C 7,8 C 94 % 1005,5 hPa 0,0 l/m 0 min 2 min 0 W/m 38,6 km/h (5 Bft) 93,48 %
22.12.2018 06:54 9,7 C 7,8 C 7,8 C 94 % 1005,4 hPa 0,0 l/m 0 min 2 min 0 W/m 29,0 km/h (5 Bft) 95,74 %
22.12.2018 06:56 9,6 C 7,8 C 7,2 C 94 % 1005,5 hPa 0,2 l/m 0 min 2 min 0 W/m 29,0 km/h (5 Bft) 95,74 %
22.12.2018 06:58 9,5 C 7,2 C 7,2 C 94 % 1005,5 hPa 0,2 l/m 0 min 2 min 0 W/m 32,2 km/h (5 Bft) 97,87 %
22.12.2018 07:00 9,3 C 7,2 C 6,7 C 94 % 1005,6 hPa 0,2 l/m 0 min 2 min 0 W/m 32,2 km/h (5 Bft) 93,62 %
22.12.2018 07:02 9,1 C 7,2 C 6,7 C 93 % 1005,6 hPa 0,0 l/m 0 min 2 min 0 W/m 41,8 km/h (6 Bft) 97,87 %
22.12.2018 07:04 9,0 C 7,2 C 6,7 C 93 % 1005,5 hPa 0,2 l/m 0 min 2 min 0 W/m 22,5 km/h (4 Bft) 97,83 %
22.12.2018 07:06 8,8 C 7,2 C 6,7 C 93 % 1005,7 hPa 0,0 l/m 0 min 2 min 0 W/m 29,0 km/h (5 Bft) 97,87 %
22.12.2018 07:08 8,8 C 7,2 C 6,7 C 93 % 1005,6 hPa 0,0 l/m 0 min 2 min 0 W/m 25,7 km/h (4 Bft) 94,00 %
22.12.2018 07:10 8,7 C 7,2 C 6,7 C 93 % 1005,8 hPa 0,0 l/m 0 min 0 min 0 W/m 22,5 km/h (4 Bft) 97,87 %
22.12.2018 07:12 8,7 C 7,2 C 6,7 C 93 % 1005,8 hPa 0,0 l/m 0 min 0 min 0 W/m 35,4 km/h (5 Bft) 97,87 %
22.12.2018 07:14 8,6 C 7,2 C 6,7 C 93 % 1005,8 hPa 0,0 l/m 0 min 0 min 0 W/m 32,2 km/h (5 Bft) 93,48 %
22.12.2018 07:16 8,6 C 7,2 C 6,7 C 93 % 1005,9 hPa 0,0 l/m 0 min 0 min 0 W/m 12,9 km/h (3 Bft) 100,00 %
22.12.2018 07:18 8,5 C 7,2 C 6,7 C 93 % 1005,9 hPa 0,0 l/m 0 min 0 min 0 W/m 12,9 km/h (3 Bft) 95,74 %
22.12.2018 07:20 8,4 C 6,7 C 6,7 C 93 % 1005,9 hPa 0,0 l/m 0 min 0 min 0 W/m 12,9 km/h (3 Bft) 97,87 %
22.12.2018 07:22 8,4 C 7,2 C 6,7 C 93 % 1006,0 hPa 0,0 l/m 0 min 0 min 0 W/m 9,7 km/h (2 Bft) 100,00 %
22.12.2018 07:24 8,4 C 7,2 C 6,7 C 93 % 1006,1 hPa 0,0 l/m 0 min 0 min 0 W/m 22,5 km/h (4 Bft) 97,87 %
22.12.2018 07:26 8,4 C 7,2 C 6,7 C 93 % 1006,1 hPa 0,0 l/m 0 min 0 min 0 W/m 16,1 km/h (3 Bft) 97,83 %
22.12.2018 07:28 8,4 C 7,2 C 6,7 C 93 % 1006,2 hPa 0,0 l/m 0 min 0 min 0 W/m 12,9 km/h (3 Bft) 100,00 %
22.12.2018 07:30 8,3 C 7,2 C 6,7 C 93 % 1006,3 hPa 0,0 l/m 0 min 0 min 0 W/m 12,9 km/h (3 Bft) 100,00 %
22.12.2018 07:32 8,3 C 7,2 C 6,7 C 93 % 1006,3 hPa 0,0 l/m 0 min 0 min 0 W/m 29,0 km/h (5 Bft) 97,92 %
22.12.2018 07:34 8,4 C 7,2 C 6,7 C 94 % 1006,4 hPa 0,0 l/m 0 min 0 min 0 W/m 16,1 km/h (3 Bft) 100,00 %
22.12.2018 07:36 8,4 C 7,2 C 6,7 C 94 % 1006,7 hPa 0,0 l/m 0 min 0 min 0 W/m 38,6 km/h (5 Bft) 97,87 %
22.12.2018 07:38 8,4 C 7,8 C 7,2 C 94 % 1006,6 hPa 0,0 l/m 0 min 0 min 0 W/m 16,1 km/h (3 Bft) 100,00 %
22.12.2018 07:40 8,5 C 7,8 C 7,2 C 94 % 1006,5 hPa 0,0 l/m 0 min 0 min 0 W/m 19,3 km/h (3 Bft) 100,00 %
22.12.2018 07:42 8,6 C 7,8 C 7,2 C 94 % 1006,4 hPa 0,0 l/m 0 min 0 min 0 W/m 25,7 km/h (4 Bft) 100,00 %
22.12.2018 07:44 8,7 C 7,8 C 7,2 C 94 % 1006,6 hPa 0,0 l/m 0 min 0 min 0 W/m 22,5 km/h (4 Bft) 97,87 %
22.12.2018 07:46 8,7 C 7,8 C 7,2 C 94 % 1006,6 hPa 0,0 l/m 0 min 0 min 0 W/m 22,5 km/h (4 Bft) 100,00 %
22.12.2018 07:48 8,7 C 7,8 C 7,2 C 94 % 1006,6 hPa 0,0 l/m 0 min 0 min 0 W/m 29,0 km/h (5 Bft) 100,00 %
22.12.2018 07:50 8,8 C 7,8 C 7,2 C 94 % 1006,6 hPa 0,0 l/m 0 min 0 min 0 W/m 25,7 km/h (4 Bft) 100,00 %
22.12.2018 07:52 8,8 C 7,8 C 7,2 C 94 % 1006,7 hPa 0,0 l/m 0 min 0 min 0 W/m 29,0 km/h (5 Bft) 100,00 %
22.12.2018 07:54 8,8 C 7,8 C 7,2 C 94 % 1006,7 hPa 0,0 l/m 0 min 0 min 0 W/m 32,2 km/h (5 Bft) 97,87 %
22.12.2018 07:56 8,8 C 7,8 C 7,2 C 94 % 1006,8 hPa 0,0 l/m 0 min 2 min 0 W/m 19,3 km/h (3 Bft) 95,74 %
22.12.2018 07:58 8,8 C 7,8 C 7,2 C 94 % 1007,0 hPa 0,0 l/m 0 min 2 min 0 W/m 29,0 km/h (5 Bft) 93,62 %
22.12.2018 08:00 8,9 C 7,8 C 7,2 C 94 % 1006,9 hPa 0,0 l/m 0 min 2 min 0 W/m 38,6 km/h (5 Bft) 100,00 %
22.12.2018 08:02 8,9 C 7,8 C 7,2 C 94 % 1006,9 hPa 0,0 l/m 0 min 2 min 0 W/m 16,1 km/h (3 Bft) 100,00 %
22.12.2018 08:04 8,9 C 7,8 C 7,2 C 93 % 1006,9 hPa 0,0 l/m 0 min 2 min 0 W/m 22,5 km/h (4 Bft) 100,00 %
22.12.2018 08:06 8,9 C 7,8 C 7,2 C 93 % 1006,9 hPa 0,0 l/m 0 min 2 min 0 W/m 22,5 km/h (4 Bft) 100,00 %
22.12.2018 08:08 8,9 C 7,8 C 7,2 C 93 % 1007,1 hPa 0,0 l/m 0 min 0 min 0 W/m 22,5 km/h (4 Bft) 100,00 %
22.12.2018 08:10 8,9 C 7,8 C 7,2 C 93 % 1007,0 hPa 0,0 l/m 0 min 0 min 0 W/m 25,7 km/h (4 Bft) 100,00 %
22.12.2018 08:12 8,9 C 7,8 C 7,2 C 93 % 1007,1 hPa 0,0 l/m 0 min 0 min 0 W/m 29,0 km/h (5 Bft) 97,83 %
22.12.2018 08:14 8,9 C 7,8 C 7,2 C 93 % 1007,2 hPa 0,0 l/m 0 min 0 min 0 W/m 19,3 km/h (3 Bft) 100,00 %
22.12.2018 08:16 8,9 C 7,8 C 7,2 C 93 % 1007,1 hPa 0,0 l/m 0 min 0 min 0 W/m 25,7 km/h (4 Bft) 100,00 %
22.12.2018 08:18 8,9 C 7,8 C 7,2 C 93 % 1007,0 hPa 0,0 l/m 0 min 0 min 0 W/m 22,5 km/h (4 Bft) 100,00 %
22.12.2018 08:20 8,9 C 7,8 C 7,2 C 93 % 1007,0 hPa 0,0 l/m 0 min 0 min 0 W/m 22,5 km/h (4 Bft) 100,00 %
22.12.2018 08:22 8,9 C 7,8 C 7,2 C 93 % 1007,1 hPa 0,0 l/m 0 min 0 min 0 W/m 22,5 km/h (4 Bft) 100,00 %
22.12.2018 08:24 9,0 C 7,8 C 7,2 C 93 % 1007,3 hPa 0,0 l/m 0 min 0 min 0 W/m 25,7 km/h (4 Bft) 100,00 %
22.12.2018 08:26 9,0 C 7,8 C 7,2 C 93 % 1007,3 hPa 0,0 l/m 0 min 0 min 0 W/m 32,2 km/h (5 Bft) 100,00 %
22.12.2018 08:28 9,0 C 7,8 C 7,2 C 93 % 1007,4 hPa 0,0 l/m 0 min 0 min 0 W/m 19,3 km/h (3 Bft) 100,00 %
22.12.2018 08:30 9,0 C 7,8 C 7,2 C 93 % 1007,6 hPa 0,0 l/m 0 min 0 min 0 W/m 19,3 km/h (3 Bft) 100,00 %
22.12.2018 08:32 8,9 C 7,8 C 7,2 C 93 % 1007,5 hPa 0,0 l/m 0 min 0 min 0 W/m 19,3 km/h (3 Bft) 100,00 %
22.12.2018 08:34 8,9 C 7,8 C 7,2 C 93 % 1007,6 hPa 0,0 l/m 0 min 0 min 0 W/m 22,5 km/h (4 Bft) 100,00 %
22.12.2018 08:36 8,9 C 7,8 C 7,2 C 93 % 1007,6 hPa 0,0 l/m 0 min 0 min 0 W/m 19,3 km/h (3 Bft) 100,00 %
22.12.2018 08:38 8,9 C 7,8 C 7,2 C 93 % 1007,5 hPa 0,0 l/m 0 min 0 min 0 W/m 19,3 km/h (3 Bft) 100,00 %
22.12.2018 08:40 8,9 C 7,8 C 7,2 C 93 % 1007,6 hPa 0,0 l/m 0 min 0 min 0 W/m 25,7 km/h (4 Bft) 100,00 %
22.12.2018 08:42 8,9 C 7,8 C 7,2 C 93 % 1007,7 hPa 0,0 l/m 0 min 0 min 0 W/m 29,0 km/h (5 Bft) 100,00 %
22.12.2018 08:44 8,9 C 7,8 C 7,2 C 93 % 1007,7 hPa 0,0 l/m 0 min 0 min 2 W/m 16,1 km/h (3 Bft) 93,62 %
22.12.2018 08:46 8,9 C 7,8 C 7,2 C 93 % 1007,8 hPa 0,0 l/m 0 min 0 min 5 W/m 25,7 km/h (4 Bft) 100,00 %
22.12.2018 08:48 8,9 C 7,8 C 7,2 C 93 % 1007,8 hPa 0,0 l/m 0 min 0 min 5 W/m 22,5 km/h (4 Bft) 100,00 %
22.12.2018 08:50 8,9 C 7,8 C 7,2 C 93 % 1007,9 hPa 0,0 l/m 0 min 0 min 5 W/m 25,7 km/h (4 Bft) 100,00 %
22.12.2018 08:52 8,9 C 7,8 C 7,2 C 93 % 1008,0 hPa 0,0 l/m 0 min 0 min 5 W/m 16,1 km/h (3 Bft) 100,00 %
22.12.2018 08:54 8,9 C 7,8 C 7,2 C 93 % 1008,0 hPa 0,0 l/m 0 min 0 min 5 W/m 32,2 km/h (5 Bft) 97,87 %
22.12.2018 08:56 8,9 C 7,8 C 7,2 C 93 % 1008,1 hPa 0,0 l/m 0 min 0 min 5 W/m 19,3 km/h (3 Bft) 97,87 %
22.12.2018 08:58 8,9 C 7,8 C 7,2 C 93 % 1008,1 hPa 0,0 l/m 0 min 0 min 5 W/m 32,2 km/h (5 Bft) 95,74 %
22.12.2018 09:00 9,0 C 7,8 C 7,2 C 93 % 1008,2 hPa 0,0 l/m 0 min 0 min 5 W/m 16,1 km/h (3 Bft) 97,83 %
22.12.2018 09:02 9,0 C 7,8 C 7,2 C 93 % 1008,3 hPa 0,0 l/m 0 min 0 min 3 W/m 19,3 km/h (3 Bft) 95,74 %
22.12.2018 09:04 9,0 C 7,8 C 7,2 C 93 % 1008,5 hPa 0,0 l/m 0 min 0 min 7 W/m 16,1 km/h (3 Bft) 95,74 %
22.12.2018 09:06 9,0 C 7,8 C 7,2 C 93 % 1008,3 hPa 0,0 l/m 0 min 0 min 7 W/m 19,3 km/h (3 Bft) 93,62 %
22.12.2018 09:08 9,1 C 7,8 C 7,2 C 93 % 1008,3 hPa 0,0 l/m 0 min 0 min 9 W/m 22,5 km/h (4 Bft) 95,74 %
22.12.2018 09:10 9,1 C 8,3 C 7,2 C 93 % 1008,4 hPa 0,0 l/m 0 min 0 min 10 W/m 25,7 km/h (4 Bft) 93,62 %
22.12.2018 09:12 9,1 C 8,3 C 7,2 C 93 % 1008,5 hPa 0,0 l/m 0 min 0 min 12 W/m 38,6 km/h (5 Bft) 91,30 %
22.12.2018 09:14 9,1 C 7,8 C 7,2 C 92 % 1008,5 hPa 0,0 l/m 0 min 0 min 14 W/m 29,0 km/h (5 Bft) 89,36 %
22.12.2018 09:16 9,1 C 7,8 C 7,2 C 92 % 1008,6 hPa 0,0 l/m 0 min 0 min 21 W/m 16,1 km/h (3 Bft) 93,62 %
22.12.2018 09:18 9,1 C 7,8 C 7,2 C 92 % 1008,7 hPa 0,0 l/m 0 min 0 min 31 W/m 22,5 km/h (4 Bft) 93,62 %
22.12.2018 09:20 9,1 C 7,8 C 7,2 C 92 % 1008,8 hPa 0,0 l/m 0 min 0 min 33 W/m 22,5 km/h (4 Bft) 91,49 %
22.12.2018 09:22 9,1 C 7,8 C 7,2 C 92 % 1008,8 hPa 0,0 l/m 0 min 0 min 35 W/m 25,7 km/h (4 Bft) 93,48 %
22.12.2018 09:24 9,1 C 7,8 C 7,2 C 92 % 1008,8 hPa 0,0 l/m 0 min 0 min 39 W/m 25,7 km/h (4 Bft) 93,62 %
22.12.2018 09:26 9,1 C 8,3 C 7,2 C 92 % 1008,9 hPa 0,0 l/m 0 min 0 min 42 W/m 25,7 km/h (4 Bft) 91,49 %
22.12.2018 09:28 9,1 C 8,3 C 7,2 C 92 % 1008,8 hPa 0,0 l/m 0 min 0 min 48 W/m 22,5 km/h (4 Bft) 97,22 %
22.12.2018 09:30 9,1 C 8,3 C 7,2 C 92 % 1009,0 hPa 0,0 l/m 0 min 0 min 49 W/m 19,3 km/h (3 Bft) 93,62 %
22.12.2018 09:32 9,1 C 8,3 C 7,2 C 92 % 1009,0 hPa 0,0 l/m 0 min 0 min 51 W/m 16,1 km/h (3 Bft) 91,30 %
22.12.2018 09:34 9,1 C 8,3 C 7,2 C 92 % 1009,0 hPa 0,0 l/m 0 min 0 min 53 W/m 29,0 km/h (5 Bft) 93,62 %
22.12.2018 09:36 9,1 C 8,3 C 7,2 C 91 % 1009,1 hPa 0,0 l/m 0 min 0 min 52 W/m 25,7 km/h (4 Bft) 93,22 %
22.12.2018 09:38 9,1 C 8,3 C 7,2 C 91 % 1009,2 hPa 0,0 l/m 0 min 0 min 51 W/m 19,3 km/h (3 Bft) 91,43 %
22.12.2018 09:40 9,1 C 8,3 C 7,2 C 91 % 1009,3 hPa 0,0 l/m 0 min 0 min 49 W/m 25,7 km/h (4 Bft) 93,62 %
22.12.2018 09:42 9,1 C 8,3 C 7,2 C 91 % 1009,2 hPa 0,0 l/m 0 min 0 min 47 W/m 19,3 km/h (3 Bft) 93,62 %
22.12.2018 09:44 9,1 C 8,3 C 7,2 C 91 % 1009,3 hPa 0,0 l/m 0 min 0 min 47 W/m 25,7 km/h (4 Bft) 95,65 %
22.12.2018 09:46 9,1 C 8,3 C 7,2 C 91 % 1009,3 hPa 0,0 l/m 0 min 0 min 50 W/m 22,5 km/h (4 Bft) 97,87 %
22.12.2018 09:48 9,1 C 8,3 C 7,2 C 91 % 1009,4 hPa 0,0 l/m 0 min 0 min 64 W/m 22,5 km/h (4 Bft) 97,87 %
22.12.2018 09:50 9,2 C 8,3 C 7,2 C 91 % 1009,4 hPa 0,0 l/m 2 min 0 min 78 W/m 19,3 km/h (3 Bft) 95,74 %
22.12.2018 09:52 9,2 C 8,9 C 7,2 C 91 % 1009,7 hPa 0,0 l/m 2 min 0 min 73 W/m 16,1 km/h (3 Bft) 97,87 %
22.12.2018 09:54 9,2 C 9,4 C 7,8 C 91 % 1009,7 hPa 0,0 l/m 0 min 0 min 68 W/m 22,5 km/h (4 Bft) 97,87 %
22.12.2018 09:56 9,2 C 9,4 C 7,8 C 91 % 1009,7 hPa 0,0 l/m 0 min 0 min 71 W/m 16,1 km/h (3 Bft) 97,83 %
22.12.2018 09:58 9,2 C 9,4 C 7,8 C 91 % 1009,7 hPa 0,0 l/m 0 min 0 min 78 W/m 19,3 km/h (3 Bft) 97,87 %
22.12.2018 10:00 9,2 C 9,4 C 7,8 C 91 % 1009,7 hPa 0,0 l/m 2 min 0 min 100 W/m 25,7 km/h (4 Bft) 95,74 %
22.12.2018 10:02 9,3 C 9,4 C 7,8 C 91 % 1009,8 hPa 0,0 l/m 2 min 0 min 115 W/m 16,1 km/h (3 Bft) 97,87 %
22.12.2018 10:04 9,3 C 10,0 C 7,8 C 91 % 1009,8 hPa 0,0 l/m 2 min 0 min 117 W/m 25,7 km/h (4 Bft) 97,87 %
22.12.2018 10:06 9,3 C 10,0 C 7,8 C 91 % 1010,0 hPa 0,0 l/m 2 min 0 min 130 W/m 19,3 km/h (3 Bft) 98,28 %
22.12.2018 10:08 9,4 C 10,6 C 7,8 C 91 % 1009,9 hPa 0,0 l/m 2 min 0 min 133 W/m 9,7 km/h (2 Bft) 97,14 %
22.12.2018 10:10 9,4 C 10,0 C 7,8 C 91 % 1009,9 hPa 0,0 l/m 2 min 0 min 102 W/m 19,3 km/h (3 Bft) 97,87 %
22.12.2018 10:12 9,4 C 10,6 C 7,8 C 90 % 1009,9 hPa 0,0 l/m 2 min 0 min 96 W/m 22,5 km/h (4 Bft) 97,87 %
22.12.2018 10:14 9,4 C 11,1 C 7,8 C 90 % 1010,0 hPa 0,0 l/m 2 min 0 min 126 W/m 19,3 km/h (3 Bft) 100,00 %
22.12.2018 10:16 9,4 C 11,7 C 7,8 C 90 % 1010,1 hPa 0,0 l/m 2 min 0 min 137 W/m 22,5 km/h (4 Bft) 100,00 %
22.12.2018 10:18 9,4 C 11,7 C 7,8 C 90 % 1010,1 hPa 0,0 l/m 2 min 0 min 151 W/m 19,3 km/h (3 Bft) 100,00 %
22.12.2018 10:20 9,4 C 11,1 C 7,8 C 90 % 1010,2 hPa 0,0 l/m 2 min 0 min 155 W/m 19,3 km/h (3 Bft) 100,00 %
22.12.2018 10:22 9,5 C 10,6 C 7,8 C 90 % 1010,3 hPa 0,0 l/m 2 min 0 min 113 W/m 22,5 km/h (4 Bft) 97,87 %
22.12.2018 10:24 9,6 C 11,1 C 7,8 C 90 % 1010,2 hPa 0,0 l/m 2 min 0 min 186 W/m 25,7 km/h (4 Bft) 97,87 %
22.12.2018 10:26 9,6 C 12,2 C 8,3 C 90 % 1010,3 hPa 0,0 l/m 2 min 0 min 199 W/m 19,3 km/h (3 Bft) 95,74 %
22.12.2018 10:28 9,6 C 12,8 C 8,3 C 90 % 1010,4 hPa 0,0 l/m 2 min 0 min 194 W/m 9,7 km/h (2 Bft) 100,00 %
22.12.2018 10:30 9,7 C 12,8 C 7,8 C 90 % 1010,4 hPa 0,0 l/m 2 min 0 min 182 W/m 29,0 km/h (5 Bft) 97,87 %
22.12.2018 10:32 9,7 C 13,3 C 7,8 C 90 % 1010,4 hPa 0,0 l/m 2 min 0 min 193 W/m 16,1 km/h (3 Bft) 100,00 %
22.12.2018 10:34 9,7 C 13,3 C 7,8 C 90 % 1010,4 hPa 0,0 l/m 2 min 0 min 201 W/m 25,7 km/h (4 Bft) 97,87 %
22.12.2018 10:36 9,8 C 13,3 C 8,3 C 90 % 1010,4 hPa 0,0 l/m 2 min 0 min 216 W/m 19,3 km/h (3 Bft) 96,61 %
22.12.2018 10:38 9,8 C 13,3 C 8,3 C 90 % 1010,4 hPa 0,0 l/m 2 min 0 min 220 W/m 12,9 km/h (3 Bft) 100,00 %
22.12.2018 10:40 9,9 C 12,2 C 8,3 C 90 % 1010,4 hPa 0,0 l/m 2 min 0 min 146 W/m 12,9 km/h (3 Bft) 100,00 %
22.12.2018 10:42 9,9 C 11,1 C 8,3 C 90 % 1010,5 hPa 0,0 l/m 0 min 0 min 101 W/m 22,5 km/h (4 Bft) 100,00 %
22.12.2018 10:44 10,0 C 10,0 C 8,3 C 89 % 1010,5 hPa 0,0 l/m 0 min 0 min 76 W/m 19,3 km/h (3 Bft) 100,00 %
22.12.2018 10:46 10,0 C 10,0 C 8,3 C 89 % 1010,6 hPa 0,0 l/m 0 min 0 min 63 W/m 16,1 km/h (3 Bft) 100,00 %
22.12.2018 10:48 10,0 C 10,0 C 8,3 C 89 % 1010,7 hPa 0,0 l/m 0 min 0 min 61 W/m 16,1 km/h (3 Bft) 100,00 %
22.12.2018 10:50 10,0 C 10,0 C 8,3 C 89 % 1010,7 hPa 0,0 l/m 0 min 0 min 63 W/m 22,5 km/h (4 Bft) 100,00 %
22.12.2018 10:52 10,0 C 9,4 C 8,3 C 89 % 1010,7 hPa 0,0 l/m 0 min 0 min 66 W/m 12,9 km/h (3 Bft) 100,00 %
22.12.2018 10:54 10,0 C 10,0 C 8,3 C 89 % 1010,7 hPa 0,0 l/m 0 min 0 min 76 W/m 19,3 km/h (3 Bft) 100,00 %
22.12.2018 10:56 10,0 C 10,0 C 8,3 C 89 % 1010,8 hPa 0,0 l/m 0 min 0 min 91 W/m 12,9 km/h (3 Bft) 100,00 %
22.12.2018 10:58 10,0 C 10,0 C 8,3 C 89 % 1010,8 hPa 0,0 l/m 0 min 0 min 94 W/m 22,5 km/h (4 Bft) 100,00 %
22.12.2018 11:00 10,0 C 10,0 C 8,3 C 89 % 1010,8 hPa 0,0 l/m 0 min 0 min 111 W/m 12,9 km/h (3 Bft) 100,00 %
22.12.2018 11:02 10,0 C 10,0 C 8,3 C 89 % 1010,7 hPa 0,0 l/m 0 min 0 min 120 W/m 16,1 km/h (3 Bft) 100,00 %
22.12.2018 11:04 10,0 C 10,6 C 8,3 C 89 % 1010,9 hPa 0,0 l/m 0 min 0 min 120 W/m 19,3 km/h (3 Bft) 97,87 %
22.12.2018 11:06 10,0 C 10,0 C 8,3 C 89 % 1010,8 hPa 0,0 l/m 0 min 0 min 95 W/m 9,7 km/h (2 Bft) 100,00 %
22.12.2018 11:08 10,1 C 10,0 C 8,3 C 89 % 1010,9 hPa 0,0 l/m 0 min 0 min 84 W/m 16,1 km/h (3 Bft) 100,00 %
22.12.2018 11:10 10,1 C 10,0 C 8,3 C 89 % 1010,9 hPa 0,0 l/m 0 min 0 min 82 W/m 22,5 km/h (4 Bft) 100,00 %
22.12.2018 11:12 10,1 C 10,0 C 8,3 C 89 % 1010,9 hPa 0,0 l/m 0 min 0 min 91 W/m 12,9 km/h (3 Bft) 100,00 %
22.12.2018 11:14 10,1 C 10,0 C 8,3 C 89 % 1011,0 hPa 0,0 l/m 0 min 0 min 103 W/m 9,7 km/h (2 Bft) 100,00 %
22.12.2018 11:16 10,1 C 10,0 C 8,3 C 89 % 1011,2 hPa 0,0 l/m 0 min 0 min 88 W/m 12,9 km/h (3 Bft) 95,74 %
22.12.2018 11:18 10,1 C 10,0 C 8,9 C 89 % 1011,0 hPa 0,0 l/m 0 min 0 min 82 W/m 9,7 km/h (2 Bft) 97,83 %
22.12.2018 11:20 10,1 C 10,0 C 8,9 C 89 % 1011,0 hPa 0,0 l/m 0 min 0 min 75 W/m 16,1 km/h (3 Bft) 97,87 %
22.12.2018 11:22 10,1 C 10,0 C 8,9 C 89 % 1011,0 hPa 0,0 l/m 0 min 0 min 70 W/m 12,9 km/h (3 Bft) 97,87 %
22.12.2018 11:24 10,1 C 10,0 C 8,9 C 89 % 1011,0 hPa 0,0 l/m 0 min 0 min 68 W/m 12,9 km/h (3 Bft) 100,00 %
22.12.2018 11:26 10,1 C 10,0 C 8,9 C 89 % 1011,1 hPa 0,0 l/m 0 min 0 min 85 W/m 16,1 km/h (3 Bft) 100,00 %
22.12.2018 11:28 10,1 C 10,0 C 9,4 C 90 % 1011,1 hPa 0,0 l/m 0 min 0 min 125 W/m 16,1 km/h (3 Bft) 97,87 %
22.12.2018 11:30 10,1 C 10,0 C 9,4 C 89 % 1011,2 hPa 0,0 l/m 0 min 0 min 87 W/m 16,1 km/h (3 Bft) 97,83 %
22.12.2018 11:32 10,1 C 10,0 C 9,4 C 89 % 1011,2 hPa 0,0 l/m 0 min 0 min 62 W/m 6,4 km/h (2 Bft) 95,74 %
22.12.2018 11:34 10,1 C 10,0 C 9,4 C 89 % 1011,1 hPa 0,0 l/m 0 min 0 min 64 W/m 16,1 km/h (3 Bft) 95,74 %
22.12.2018 11:36 10,2 C 10,0 C 9,4 C 90 % 1011,0 hPa 0,0 l/m 0 min 0 min 63 W/m 9,7 km/h (2 Bft) 98,31 %
22.12.2018 11:38 10,2 C 10,0 C 9,4 C 90 % 1011,0 hPa 0,0 l/m 0 min 0 min 58 W/m 9,7 km/h (2 Bft) 100,00 %
22.12.2018 11:40 10,2 C 10,0 C 8,9 C 90 % 1011,1 hPa 0,0 l/m 0 min 0 min 59 W/m 19,3 km/h (3 Bft) 95,74 %
22.12.2018 11:42 10,2 C 10,0 C 9,4 C 90 % 1011,1 hPa 0,0 l/m 0 min 0 min 69 W/m 19,3 km/h (3 Bft) 95,65 %
22.12.2018 11:44 10,2 C 9,4 C 8,9 C 89 % 1011,0 hPa 0,0 l/m 0 min 2 min 58 W/m 25,7 km/h (4 Bft) 97,87 %
22.12.2018 11:46 10,1 C 9,4 C 8,9 C 89 % 1011,0 hPa 0,0 l/m 0 min 2 min 39 W/m 29,0 km/h (5 Bft) 97,87 %
22.12.2018 11:48 10,1 C 9,4 C 8,9 C 89 % 1011,1 hPa 0,0 l/m 0 min 2 min 36 W/m 22,5 km/h (4 Bft) 97,87 %
22.12.2018 11:50 10,1 C 9,4 C 8,9 C 89 % 1011,2 hPa 0,0 l/m 0 min 2 min 40 W/m 9,7 km/h (2 Bft) 93,62 %
22.12.2018 11:52 10,1 C 9,4 C 8,9 C 89 % 1011,3 hPa 0,0 l/m 0 min 0 min 46 W/m 22,5 km/h (4 Bft) 95,65 %
22.12.2018 11:54 10,1 C 9,4 C 8,9 C 89 % 1011,2 hPa 0,0 l/m 0 min 0 min 49 W/m 16,1 km/h (3 Bft) 95,74 %
22.12.2018 11:56 10,1 C 9,4 C 8,9 C 89 % 1011,3 hPa 0,0 l/m 0 min 0 min 41 W/m 12,9 km/h (3 Bft) 95,74 %
22.12.2018 11:58 10,1 C 9,4 C 8,9 C 89 % 1011,3 hPa 0,0 l/m 0 min 0 min 42 W/m 19,3 km/h (3 Bft) 95,74 %
22.12.2018 12:00 10,1 C 9,4 C 8,9 C 89 % 1011,3 hPa 0,0 l/m 0 min 0 min 25 W/m 22,5 km/h (4 Bft) 95,74 %
22.12.2018 12:02 10,0 C 9,4 C 8,9 C 89 % 1011,3 hPa 0,0 l/m 0 min 0 min 29 W/m 12,9 km/h (3 Bft) 95,74 %
22.12.2018 12:04 10,0 C 9,4 C 8,9 C 89 % 1011,4 hPa 0,0 l/m 0 min 0 min 41 W/m 19,3 km/h (3 Bft) 95,65 %
22.12.2018 12:08 10,0 C 9,4 C 8,9 C 90 % 1011,3 hPa 0,0 l/m 0 min 0 min 67 W/m 12,9 km/h (3 Bft) 93,62 %
22.12.2018 12:10 10,0 C 10,6 C 8,9 C 90 % 1011,4 hPa 0,0 l/m 0 min 0 min 132 W/m 22,5 km/h (4 Bft) 95,74 %
22.12.2018 12:12 10,0 C 11,1 C 8,9 C 90 % 1011,5 hPa 0,0 l/m 2 min 0 min 237 W/m 19,3 km/h (3 Bft) 97,87 %
22.12.2018 12:14 10,0 C 11,7 C 8,9 C 90 % 1011,4 hPa 0,0 l/m 2 min 0 min 265 W/m 25,7 km/h (4 Bft) 93,62 %
22.12.2018 12:16 10,0 C 12,8 C 8,9 C 90 % 1011,4 hPa 0,0 l/m 2 min 0 min 249 W/m 16,1 km/h (3 Bft) 95,65 %
22.12.2018 12:18 10,1 C 12,2 C 8,9 C 90 % 1011,5 hPa 0,0 l/m 2 min 0 min 149 W/m 16,1 km/h (3 Bft) 97,87 %
22.12.2018 12:20 10,1 C 12,8 C 9,4 C 90 % 1011,5 hPa 0,0 l/m 2 min 0 min 270 W/m 22,5 km/h (4 Bft) 93,62 %
22.12.2018 12:22 10,2 C 13,3 C 9,4 C 90 % 1011,5 hPa 0,0 l/m 2 min 0 min 298 W/m 25,7 km/h (4 Bft) 95,74 %
22.12.2018 12:24 10,2 C 13,3 C 9,4 C 90 % 1011,6 hPa 0,0 l/m 2 min 0 min 264 W/m 16,1 km/h (3 Bft) 93,62 %
22.12.2018 12:26 10,3 C 12,8 C 9,4 C 90 % 1011,4 hPa 0,0 l/m 2 min 0 min 258 W/m 16,1 km/h (3 Bft) 93,62 %
22.12.2018 12:28 10,3 C 13,9 C 9,4 C 90 % 1011,6 hPa 0,0 l/m 2 min 0 min 237 W/m 22,5 km/h (4 Bft) 93,48 %
22.12.2018 12:30 10,4 C 12,8 C 9,4 C 89 % 1011,5 hPa 0,0 l/m 0 min 0 min 141 W/m 19,3 km/h (3 Bft) 95,74 %
22.12.2018 12:32 10,4 C 12,8 C 9,4 C 89 % 1011,5 hPa 0,0 l/m 0 min 0 min 113 W/m 16,1 km/h (3 Bft) 95,74 %
22.12.2018 12:34 10,4 C 11,1 C 9,4 C 89 % 1011,5 hPa 0,0 l/m 0 min 0 min 105 W/m 29,0 km/h (5 Bft) 93,62 %
22.12.2018 12:36 10,4 C 10,6 C 9,4 C 89 % 1011,6 hPa 0,0 l/m 0 min 0 min 92 W/m 16,1 km/h (3 Bft) 94,83 %
22.12.2018 12:38 10,4 C 10,6 C 9,4 C 89 % 1011,7 hPa 0,0 l/m 0 min 0 min 93 W/m 25,7 km/h (4 Bft) 94,44 %
22.12.2018 12:40 10,4 C 10,0 C 9,4 C 88 % 1011,7 hPa 0,0 l/m 0 min 0 min 79 W/m 16,1 km/h (3 Bft) 95,65 %
22.12.2018 12:42 10,4 C 10,0 C 9,4 C 88 % 1011,7 hPa 0,0 l/m 0 min 0 min 60 W/m 16,1 km/h (3 Bft) 95,74 %
22.12.2018 12:44 10,4 C 10,0 C 9,4 C 88 % 1011,6 hPa 0,0 l/m 0 min 0 min 71 W/m 16,1 km/h (3 Bft) 95,74 %
22.12.2018 12:46 10,4 C 10,0 C 9,4 C 88 % 1011,6 hPa 0,0 l/m 0 min 0 min 80 W/m 19,3 km/h (3 Bft) 97,87 %
22.12.2018 12:48 10,4 C 10,0 C 9,4 C 88 % 1011,7 hPa 0,0 l/m 0 min 0 min 89 W/m 12,9 km/h (3 Bft) 97,87 %
22.12.2018 12:50 10,4 C 10,0 C 9,4 C 89 % 1011,8 hPa 0,0 l/m 0 min 0 min 90 W/m 16,1 km/h (3 Bft) 95,74 %
22.12.2018 12:52 10,3 C 10,0 C 9,4 C 89 % 1011,8 hPa 0,0 l/m 0 min 0 min 91 W/m 22,5 km/h (4 Bft) 95,65 %
22.12.2018 12:54 10,3 C 10,0 C 9,4 C 89 % 1011,8 hPa 0,0 l/m 0 min 0 min 84 W/m 19,3 km/h (3 Bft) 97,87 %
22.12.2018 12:56 10,3 C 10,0 C 9,4 C 89 % 1011,8 hPa 0,0 l/m 0 min 0 min 83 W/m 25,7 km/h (4 Bft) 95,74 %
22.12.2018 12:58 10,3 C 10,0 C 9,4 C 89 % 1011,8 hPa 0,0 l/m 0 min 0 min 81 W/m 25,7 km/h (4 Bft) 95,74 %
22.12.2018 13:00 10,3 C 10,0 C 9,4 C 89 % 1011,8 hPa 0,0 l/m 0 min 0 min 83 W/m 22,5 km/h (4 Bft) 95,74 %
22.12.2018 13:02 10,3 C 10,0 C 9,4 C 89 % 1011,9 hPa 0,0 l/m 0 min 0 min 66 W/m 16,1 km/h (3 Bft) 97,83 %
22.12.2018 13:04 10,3 C 10,0 C 9,4 C 89 % 1011,9 hPa 0,0 l/m 0 min 0 min 51 W/m 16,1 km/h (3 Bft) 97,87 %
22.12.2018 13:06 10,3 C 10,0 C 9,4 C 89 % 1012,0 hPa 0,0 l/m 0 min 0 min 27 W/m 19,3 km/h (3 Bft) 98,31 %
22.12.2018 13:08 10,3 C 10,0 C 9,4 C 89 % 1012,0 hPa 0,0 l/m 0 min 2 min 29 W/m 12,9 km/h (3 Bft) 97,14 %
22.12.2018 13:10 10,3 C 10,0 C 9,4 C 89 % 1011,9 hPa 0,0 l/m 0 min 0 min 40 W/m 12,9 km/h (3 Bft) 100,00 %
22.12.2018 13:12 10,3 C 10,0 C 8,9 C 89 % 1012,0 hPa 0,0 l/m 0 min 0 min 52 W/m 12,9 km/h (3 Bft) 100,00 %
22.12.2018 13:14 10,3 C 10,0 C 9,4 C 89 % 1012,0 hPa 0,0 l/m 0 min 0 min 59 W/m 19,3 km/h (3 Bft) 100,00 %
22.12.2018 13:16 10,3 C 10,0 C 9,4 C 89 % 1012,1 hPa 0,0 l/m 0 min 0 min 68 W/m 19,3 km/h (3 Bft) 95,74 %
22.12.2018 13:18 10,3 C 10,0 C 9,4 C 89 % 1012,1 hPa 0,0 l/m 0 min 0 min 68 W/m 12,9 km/h (3 Bft) 100,00 %
22.12.2018 13:20 10,3 C 10,0 C 9,4 C 89 % 1012,1 hPa 0,0 l/m 0 min 0 min 71 W/m 9,7 km/h (2 Bft) 100,00 %
22.12.2018 13:22 10,3 C 10,0 C 9,4 C 89 % 1012,0 hPa 0,0 l/m 0 min 0 min 71 W/m 19,3 km/h (3 Bft) 100,00 %
22.12.2018 13:24 10,3 C 10,0 C 9,4 C 89 % 1012,0 hPa 0,0 l/m 0 min 0 min 77 W/m 16,1 km/h (3 Bft) 100,00 %
22.12.2018 13:26 10,4 C 10,6 C 9,4 C 89 % 1012,0 hPa 0,0 l/m 0 min 0 min 78 W/m 19,3 km/h (3 Bft) 97,83 %
22.12.2018 13:28 10,4 C 10,6 C 9,4 C 89 % 1012,0 hPa 0,0 l/m 0 min 0 min 65 W/m 16,1 km/h (3 Bft) 100,00 %
22.12.2018 13:30 10,4 C 10,6 C 9,4 C 88 % 1012,1 hPa 0,0 l/m 0 min 0 min 62 W/m 19,3 km/h (3 Bft) 100,00 %
22.12.2018 13:32 10,4 C 10,6 C 9,4 C 88 % 1012,1 hPa 0,0 l/m 0 min 0 min 62 W/m 19,3 km/h (3 Bft) 97,87 %
22.12.2018 13:34 10,4 C 10,6 C 9,4 C 88 % 1012,2 hPa 0,0 l/m 0 min 0 min 68 W/m 22,5 km/h (4 Bft) 100,00 %
22.12.2018 13:36 10,4 C 10,6 C 9,4 C 88 % 1012,1 hPa 0,0 l/m 0 min 0 min 86 W/m 16,1 km/h (3 Bft) 98,28 %
22.12.2018 13:38 10,4 C 10,6 C 9,4 C 88 % 1012,2 hPa 0,0 l/m 0 min 0 min 98 W/m 12,9 km/h (3 Bft) 100,00 %
22.12.2018 13:40 10,4 C 10,6 C 9,4 C 88 % 1012,2 hPa 0,0 l/m 0 min 0 min 88 W/m 16,1 km/h (3 Bft) 97,87 %
22.12.2018 13:42 10,5 C 10,6 C 9,4 C 88 % 1012,3 hPa 0,0 l/m 0 min 0 min 89 W/m 12,9 km/h (3 Bft) 100,00 %
22.12.2018 13:44 10,5 C 10,6 C 9,4 C 88 % 1012,2 hPa 0,0 l/m 0 min 0 min 88 W/m 29,0 km/h (5 Bft) 100,00 %
22.12.2018 13:46 10,5 C 10,6 C 9,4 C 87 % 1012,3 hPa 0,0 l/m 0 min 0 min 97 W/m 22,5 km/h (4 Bft) 100,00 %
22.12.2018 13:48 10,5 C 10,6 C 9,4 C 87 % 1012,2 hPa 0,0 l/m 0 min 0 min 78 W/m 12,9 km/h (3 Bft) 97,87 %
22.12.2018 13:50 10,5 C 10,6 C 9,4 C 87 % 1012,3 hPa 0,0 l/m 0 min 0 min 85 W/m 16,1 km/h (3 Bft) 100,00 %
22.12.2018 13:52 10,6 C 10,6 C 9,4 C 87 % 1012,3 hPa 0,0 l/m 0 min 0 min 80 W/m 16,1 km/h (3 Bft) 100,00 %
22.12.2018 13:54 10,6 C 10,6 C 9,4 C 87 % 1012,3 hPa 0,0 l/m 0 min 0 min 72 W/m 19,3 km/h (3 Bft) 100,00 %
22.12.2018 13:56 10,6 C 10,6 C 9,4 C 87 % 1012,3 hPa 0,0 l/m 0 min 2 min 60 W/m 19,3 km/h (3 Bft) 100,00 %
22.12.2018 13:58 10,6 C 10,6 C 9,4 C 87 % 1012,4 hPa 0,0 l/m 0 min 0 min 51 W/m 19,3 km/h (3 Bft) 97,87 %
22.12.2018 14:00 10,6 C 10,6 C 9,4 C 87 % 1012,4 hPa 0,0 l/m 0 min 0 min 63 W/m 16,1 km/h (3 Bft) 97,87 %
22.12.2018 14:02 10,6 C 10,6 C 9,4 C 87 % 1012,4 hPa 0,0 l/m 0 min 2 min 95 W/m 16,1 km/h (3 Bft) 97,83 %
22.12.2018 14:04 10,6 C 10,0 C 9,4 C 87 % 1012,3 hPa 0,0 l/m 2 min 2 min 132 W/m 19,3 km/h (3 Bft) 97,87 %
22.12.2018 14:06 10,6 C 10,0 C 8,9 C 87 % 1012,3 hPa 0,0 l/m 0 min 2 min 105 W/m 16,1 km/h (3 Bft) 96,61 %
22.12.2018 14:08 10,6 C 10,0 C 8,9 C 87 % 1012,3 hPa 0,0 l/m 0 min 2 min 65 W/m 16,1 km/h (3 Bft) 97,14 %
22.12.2018 14:10 10,6 C 10,0 C 8,9 C 87 % 1012,3 hPa 0,0 l/m 0 min 2 min 55 W/m 16,1 km/h (3 Bft) 97,87 %
22.12.2018 14:12 10,6 C 10,0 C 8,9 C 87 % 1012,4 hPa 0,0 l/m 0 min 2 min 38 W/m 16,1 km/h (3 Bft) 97,87 %
22.12.2018 14:14 10,6 C 10,0 C 9,4 C 87 % 1012,5 hPa 0,0 l/m 0 min 2 min 32 W/m 16,1 km/h (3 Bft) 97,83 %
22.12.2018 14:16 10,6 C 10,0 C 9,4 C 87 % 1012,4 hPa 0,0 l/m 0 min 2 min 42 W/m 16,1 km/h (3 Bft) 97,87 %
22.12.2018 14:18 10,6 C 10,0 C 9,4 C 87 % 1012,4 hPa 0,0 l/m 0 min 0 min 50 W/m 22,5 km/h (4 Bft) 97,87 %
22.12.2018 14:20 10,6 C 10,0 C 9,4 C 86 % 1012,5 hPa 0,0 l/m 0 min 2 min 69 W/m 19,3 km/h (3 Bft) 97,87 %
22.12.2018 14:22 10,5 C 10,0 C 9,4 C 86 % 1012,6 hPa 0,0 l/m 0 min 0 min 82 W/m 16,1 km/h (3 Bft) 97,87 %
22.12.2018 14:24 10,5 C 10,0 C 9,4 C 85 % 1012,5 hPa 0,0 l/m 0 min 0 min 71 W/m 19,3 km/h (3 Bft) 97,87 %
22.12.2018 14:26 10,4 C 10,0 C 9,4 C 85 % 1012,6 hPa 0,0 l/m 0 min 0 min 64 W/m 22,5 km/h (4 Bft) 95,65 %
22.12.2018 14:28 10,4 C 10,0 C 9,4 C 84 % 1012,7 hPa 0,0 l/m 0 min 0 min 43 W/m 19,3 km/h (3 Bft) 97,87 %
22.12.2018 14:30 10,4 C 10,0 C 8,9 C 84 % 1012,7 hPa 0,0 l/m 0 min 0 min 37 W/m 22,5 km/h (4 Bft) 97,87 %
22.12.2018 14:32 10,3 C 9,4 C 8,9 C 84 % 1012,7 hPa 0,0 l/m 0 min 2 min 34 W/m 29,0 km/h (5 Bft) 93,62 %
22.12.2018 14:34 10,3 C 9,4 C 8,3 C 84 % 1012,8 hPa 0,0 l/m 0 min 2 min 44 W/m 19,3 km/h (3 Bft) 95,74 %
22.12.2018 14:36 10,2 C 8,9 C 8,3 C 85 % 1012,9 hPa 0,0 l/m 0 min 2 min 65 W/m 25,7 km/h (4 Bft) 96,55 %
22.12.2018 14:38 10,2 C 9,4 C 8,3 C 85 % 1012,9 hPa 0,0 l/m 0 min 2 min 87 W/m 16,1 km/h (3 Bft) 91,43 %
22.12.2018 14:40 10,2 C 9,4 C 8,3 C 85 % 1012,9 hPa 0,0 l/m 0 min 2 min 94 W/m 25,7 km/h (4 Bft) 97,87 %
22.12.2018 14:42 10,1 C 9,4 C 8,3 C 86 % 1012,9 hPa 0,0 l/m 0 min 0 min 92 W/m 12,9 km/h (3 Bft) 95,74 %
22.12.2018 14:44 10,1 C 9,4 C 8,9 C 86 % 1012,9 hPa 0,0 l/m 0 min 0 min 85 W/m 19,3 km/h (3 Bft) 97,87 %
22.12.2018 14:46 10,1 C 9,4 C 8,9 C 86 % 1013,0 hPa 0,0 l/m 0 min 0 min 84 W/m 19,3 km/h (3 Bft) 95,74 %
22.12.2018 14:48 10,0 C 9,4 C 8,9 C 87 % 1013,0 hPa 0,0 l/m 0 min 0 min 80 W/m 22,5 km/h (4 Bft) 97,83 %
22.12.2018 14:50 10,0 C 9,4 C 8,9 C 87 % 1013,1 hPa 0,0 l/m 0 min 0 min 79 W/m 16,1 km/h (3 Bft) 100,00 %
22.12.2018 14:52 10,0 C 9,4 C 8,9 C 87 % 1013,1 hPa 0,0 l/m 0 min 0 min 75 W/m 16,1 km/h (3 Bft) 97,87 %
22.12.2018 14:54 10,0 C 9,4 C 8,9 C 87 % 1013,1 hPa 0,0 l/m 0 min 0 min 64 W/m 16,1 km/h (3 Bft) 93,62 %
22.12.2018 14:56 9,9 C 9,4 C 8,9 C 87 % 1013,2 hPa 0,0 l/m 0 min 0 min 60 W/m 12,9 km/h (3 Bft) 95,74 %
22.12.2018 14:58 9,9 C 9,4 C 8,9 C 87 % 1013,2 hPa 0,0 l/m 0 min 0 min 55 W/m 16,1 km/h (3 Bft) 97,87 %
22.12.2018 15:00 9,9 C 9,4 C 8,9 C 88 % 1013,2 hPa 0,0 l/m 0 min 0 min 54 W/m 9,7 km/h (2 Bft) 97,83 %
22.12.2018 15:02 9,9 C 9,4 C 8,9 C 88 % 1013,2 hPa 0,0 l/m 0 min 0 min 50 W/m 9,7 km/h (2 Bft) 97,87 %
22.12.2018 15:04 9,9 C 9,4 C 8,9 C 88 % 1013,2 hPa 0,0 l/m 0 min 0 min 47 W/m 16,1 km/h (3 Bft) 97,87 %
22.12.2018 15:06 9,9 C 9,4 C 8,9 C 88 % 1013,2 hPa 0,0 l/m 0 min 0 min 46 W/m 16,1 km/h (3 Bft) 98,31 %
22.12.2018 15:08 9,9 C 9,4 C 8,9 C 88 % 1013,2 hPa 0,0 l/m 0 min 0 min 46 W/m 9,7 km/h (2 Bft) 97,14 %
22.12.2018 15:10 9,9 C 9,4 C 8,9 C 88 % 1013,2 hPa 0,0 l/m 0 min 0 min 47 W/m 12,9 km/h (3 Bft) 97,87 %
22.12.2018 15:12 9,9 C 9,4 C 8,9 C 88 % 1013,3 hPa 0,0 l/m 0 min 0 min 50 W/m 12,9 km/h (3 Bft) 97,83 %
22.12.2018 15:14 9,9 C 9,4 C 8,9 C 88 % 1013,2 hPa 0,0 l/m 0 min 0 min 50 W/m 9,7 km/h (2 Bft) 97,87 %
22.12.2018 15:16 9,9 C 9,4 C 8,9 C 88 % 1013,3 hPa 0,0 l/m 0 min 0 min 51 W/m 16,1 km/h (3 Bft) 95,74 %
22.12.2018 15:18 9,9 C 9,4 C 8,9 C 88 % 1013,3 hPa 0,0 l/m 0 min 0 min 56 W/m 9,7 km/h (2 Bft) 97,87 %
22.12.2018 15:20 9,9 C 10,0 C 8,9 C 88 % 1013,3 hPa 0,0 l/m 0 min 0 min 62 W/m 19,3 km/h (3 Bft) 97,87 %
22.12.2018 15:22 9,9 C 10,0 C 8,9 C 88 % 1013,3 hPa 0,0 l/m 0 min 0 min 64 W/m 9,7 km/h (2 Bft) 97,87 %
22.12.2018 15:24 9,9 C 10,0 C 8,9 C 88 % 1013,3 hPa 0,0 l/m 0 min 0 min 55 W/m 12,9 km/h (3 Bft) 95,65 %
22.12.2018 15:26 9,9 C 9,4 C 8,9 C 88 % 1013,4 hPa 0,0 l/m 0 min 0 min 47 W/m 19,3 km/h (3 Bft) 97,87 %
22.12.2018 15:28 9,9 C 9,4 C 8,9 C 88 % 1013,5 hPa 0,0 l/m 0 min 0 min 40 W/m 16,1 km/h (3 Bft) 95,74 %
22.12.2018 15:30 9,9 C 9,4 C 8,9 C 88 % 1013,6 hPa 0,0 l/m 0 min 0 min 36 W/m 9,7 km/h (2 Bft) 97,87 %
22.12.2018 15:32 9,9 C 9,4 C 8,3 C 88 % 1013,6 hPa 0,0 l/m 0 min 0 min 31 W/m 12,9 km/h (3 Bft) 95,74 %
22.12.2018 15:34 9,9 C 9,4 C 8,3 C 88 % 1013,6 hPa 0,0 l/m 0 min 0 min 27 W/m 9,7 km/h (2 Bft) 95,74 %
22.12.2018 15:36 9,9 C 9,4 C 8,3 C 88 % 1013,7 hPa 0,0 l/m 0 min 0 min 25 W/m 9,7 km/h (2 Bft) 94,83 %
22.12.2018 15:38 9,9 C 9,4 C 8,3 C 88 % 1013,7 hPa 0,0 l/m 0 min 0 min 25 W/m 9,7 km/h (2 Bft) 97,56 %
22.12.2018 15:40 9,8 C 9,4 C 8,3 C 88 % 1013,7 hPa 0,0 l/m 0 min 0 min 26 W/m 9,7 km/h (2 Bft) 93,62 %
22.12.2018 15:42 9,8 C 9,4 C 8,3 C 88 % 1013,7 hPa 0,0 l/m 0 min 0 min 26 W/m 6,4 km/h (2 Bft) 95,74 %
22.12.2018 15:44 9,8 C 9,4 C 8,3 C 88 % 1013,7 hPa 0,0 l/m 0 min 0 min 28 W/m 9,7 km/h (2 Bft) 97,87 %
22.12.2018 15:46 9,8 C 9,4 C 8,3 C 88 % 1013,8 hPa 0,0 l/m 0 min 0 min 30 W/m 6,4 km/h (2 Bft) 97,87 %
22.12.2018 15:48 9,8 C 9,4 C 8,3 C 88 % 1013,8 hPa 0,0 l/m 0 min 0 min 30 W/m 6,4 km/h (2 Bft) 97,87 %
22.12.2018 15:50 9,8 C 9,4 C 8,3 C 88 % 1013,8 hPa 0,0 l/m 0 min 0 min 27 W/m 6,4 km/h (2 Bft) 97,83 %
22.12.2018 15:52 9,8 C 9,4 C 8,3 C 88 % 1013,9 hPa 0,0 l/m 0 min 0 min 23 W/m 9,7 km/h (2 Bft) 97,87 %
22.12.2018 15:54 9,8 C 9,4 C 8,3 C 88 % 1013,9 hPa 0,0 l/m 0 min 0 min 21 W/m 6,4 km/h (2 Bft) 97,87 %
22.12.2018 15:56 9,8 C 9,4 C 8,3 C 88 % 1014,0 hPa 0,0 l/m 0 min 0 min 23 W/m 9,7 km/h (2 Bft) 97,87 %
22.12.2018 15:58 9,8 C 9,4 C 8,3 C 88 % 1014,0 hPa 0,0 l/m 0 min 0 min 25 W/m 9,7 km/h (2 Bft) 97,87 %
22.12.2018 16:00 9,8 C 9,4 C 8,3 C 88 % 1014,1 hPa 0,0 l/m 0 min 0 min 24 W/m 6,4 km/h (2 Bft) 97,87 %
22.12.2018 16:02 9,8 C 9,4 C 8,3 C 88 % 1014,1 hPa 0,0 l/m 0 min 0 min 20 W/m 12,9 km/h (3 Bft) 97,83 %
22.12.2018 16:04 9,8 C 9,4 C 8,3 C 88 % 1014,1 hPa 0,0 l/m 0 min 0 min 19 W/m 6,4 km/h (2 Bft) 97,87 %
22.12.2018 16:06 9,8 C 9,4 C 8,3 C 88 % 1014,1 hPa 0,0 l/m 0 min 0 min 19 W/m 12,9 km/h (3 Bft) 97,87 %
22.12.2018 16:08 9,8 C 9,4 C 8,3 C 88 % 1014,0 hPa 0,0 l/m 0 min 0 min 18 W/m 12,9 km/h (3 Bft) 97,87 %
22.12.2018 16:10 9,8 C 9,4 C 8,3 C 88 % 1014,1 hPa 0,0 l/m 0 min 0 min 14 W/m 9,7 km/h (2 Bft) 97,87 %
22.12.2018 16:12 9,8 C 9,4 C 8,9 C 88 % 1014,2 hPa 0,0 l/m 0 min 0 min 12 W/m 22,5 km/h (4 Bft) 97,87 %
22.12.2018 16:14 9,8 C 9,4 C 8,3 C 88 % 1014,2 hPa 0,0 l/m 0 min 0 min 10 W/m 22,5 km/h (4 Bft) 97,83 %
22.12.2018 16:16 9,8 C 9,4 C 8,9 C 88 % 1014,2 hPa 0,0 l/m 0 min 0 min 9 W/m 19,3 km/h (3 Bft) 95,74 %
22.12.2018 16:18 9,8 C 9,4 C 8,9 C 87 % 1014,3 hPa 0,0 l/m 0 min 0 min 9 W/m 9,7 km/h (2 Bft) 97,87 %
22.12.2018 16:20 9,8 C 9,4 C 8,3 C 87 % 1014,4 hPa 0,0 l/m 0 min 0 min 8 W/m 9,7 km/h (2 Bft) 95,24 %
22.12.2018 16:22 9,8 C 9,4 C 8,3 C 87 % 1014,4 hPa 0,0 l/m 0 min 0 min 7 W/m 12,9 km/h (3 Bft) 93,48 %
22.12.2018 16:24 9,8 C 9,4 C 8,9 C 87 % 1014,3 hPa 0,0 l/m 0 min 0 min 7 W/m 19,3 km/h (3 Bft) 97,87 %
22.12.2018 16:26 9,8 C 9,4 C 8,3 C 87 % 1014,4 hPa 0,0 l/m 0 min 0 min 7 W/m 9,7 km/h (2 Bft) 97,87 %
22.12.2018 16:28 9,8 C 9,4 C 8,3 C 86 % 1014,4 hPa 0,0 l/m 0 min 0 min 5 W/m 16,1 km/h (3 Bft) 97,87 %
22.12.2018 16:30 9,8 C 9,4 C 8,3 C 86 % 1014,4 hPa 0,0 l/m 0 min 0 min 0 W/m 9,7 km/h (2 Bft) 97,87 %
22.12.2018 16:32 9,8 C 9,4 C 8,3 C 86 % 1014,5 hPa 0,0 l/m 0 min 0 min 0 W/m 25,7 km/h (4 Bft) 100,00 %
22.12.2018 16:34 9,8 C 8,9 C 8,3 C 86 % 1014,5 hPa 0,0 l/m 0 min 0 min 0 W/m 19,3 km/h (3 Bft) 100,00 %
22.12.2018 16:36 9,8 C 8,9 C 8,3 C 86 % 1014,5 hPa 0,0 l/m 0 min 0 min 0 W/m 29,0 km/h (5 Bft) 100,00 %
22.12.2018 16:38 9,7 C 8,9 C 8,3 C 86 % 1014,7 hPa 0,0 l/m 0 min 0 min 0 W/m 16,1 km/h (3 Bft) 100,00 %
22.12.2018 16:40 9,7 C 8,9 C 8,3 C 86 % 1014,6 hPa 0,0 l/m 0 min 0 min 0 W/m 16,1 km/h (3 Bft) 95,74 %
22.12.2018 16:42 9,7 C 8,9 C 8,3 C 86 % 1014,6 hPa 0,0 l/m 0 min 0 min 0 W/m 12,9 km/h (3 Bft) 97,87 %
22.12.2018 16:44 9,7 C 8,9 C 8,3 C 86 % 1014,6 hPa 0,0 l/m 0 min 0 min 0 W/m 12,9 km/h (3 Bft) 95,74 %
22.12.2018 16:46 9,7 C 8,9 C 8,3 C 86 % 1014,7 hPa 0,0 l/m 0 min 0 min 0 W/m 16,1 km/h (3 Bft) 97,83 %
22.12.2018 16:48 9,7 C 8,9 C 8,3 C 86 % 1014,8 hPa 0,0 l/m 0 min 0 min 0 W/m 12,9 km/h (3 Bft) 97,87 %
22.12.2018 16:50 9,7 C 8,9 C 8,3 C 86 % 1014,7 hPa 0,0 l/m 0 min 0 min 0 W/m 19,3 km/h (3 Bft) 95,74 %
22.12.2018 16:52 9,7 C 8,9 C 8,3 C 86 % 1014,7 hPa 0,0 l/m 0 min 0 min 0 W/m 12,9 km/h (3 Bft) 97,87 %
22.12.2018 16:54 9,7 C 8,9 C 8,3 C 86 % 1014,7 hPa 0,0 l/m 0 min 0 min 0 W/m 12,9 km/h (3 Bft) 97,87 %
22.12.2018 16:56 9,6 C 8,9 C 8,3 C 86 % 1014,8 hPa 0,0 l/m 0 min 0 min 0 W/m 12,9 km/h (3 Bft) 97,83 %
22.12.2018 16:58 9,6 C 8,9 C 7,8 C 86 % 1014,8 hPa 0,0 l/m 0 min 0 min 0 W/m 9,7 km/h (2 Bft) 97,87 %
22.12.2018 17:00 9,6 C 8,9 C 7,8 C 86 % 1014,8 hPa 0,0 l/m 0 min 0 min 0 W/m 22,5 km/h (4 Bft) 97,87 %
22.12.2018 17:02 9,6 C 8,9 C 7,8 C 86 % 1014,9 hPa 0,0 l/m 0 min 0 min 0 W/m 19,3 km/h (3 Bft) 93,62 %
22.12.2018 17:04 9,6 C 8,9 C 7,8 C 86 % 1014,8 hPa 0,0 l/m 0 min 0 min 0 W/m 12,9 km/h (3 Bft) 97,87 %
22.12.2018 17:06 9,6 C 8,9 C 7,8 C 86 % 1014,8 hPa 0,0 l/m 0 min 0 min 0 W/m 16,1 km/h (3 Bft) 95,74 %
22.12.2018 17:08 9,5 C 8,9 C 7,8 C 86 % 1014,9 hPa 0,0 l/m 0 min 0 min 0 W/m 22,5 km/h (4 Bft) 97,83 %
22.12.2018 17:10 9,5 C 8,3 C 7,8 C 86 % 1014,9 hPa 0,0 l/m 0 min 0 min 0 W/m 19,3 km/h (3 Bft) 97,87 %
22.12.2018 17:12 9,4 C 8,3 C 7,8 C 86 % 1014,8 hPa 0,0 l/m 0 min 0 min 0 W/m 16,1 km/h (3 Bft) 95,74 %
22.12.2018 17:14 9,4 C 8,3 C 7,8 C 86 % 1014,9 hPa 0,0 l/m 0 min 0 min 0 W/m 12,9 km/h (3 Bft) 95,74 %
22.12.2018 17:16 9,4 C 8,3 C 7,8 C 86 % 1014,9 hPa 0,0 l/m 0 min 0 min 0 W/m 9,7 km/h (2 Bft) 97,87 %
22.12.2018 17:18 9,4 C 8,3 C 7,8 C 86 % 1014,9 hPa 0,0 l/m 0 min 0 min 0 W/m 9,7 km/h (2 Bft) 97,87 %
22.12.2018 17:20 9,3 C 8,3 C 7,8 C 87 % 1014,9 hPa 0,0 l/m 0 min 0 min 0 W/m 12,9 km/h (3 Bft) 93,48 %
22.12.2018 17:22 9,3 C 8,3 C 7,8 C 87 % 1014,8 hPa 0,0 l/m 0 min 0 min 0 W/m 9,7 km/h (2 Bft) 95,74 %
22.12.2018 17:24 9,3 C 8,9 C 7,8 C 87 % 1014,8 hPa 0,0 l/m 0 min 0 min 0 W/m 12,9 km/h (3 Bft) 93,62 %
22.12.2018 17:26 9,3 C 8,3 C 7,8 C 87 % 1014,9 hPa 0,0 l/m 0 min 0 min 0 W/m 19,3 km/h (3 Bft) 100,00 %
22.12.2018 17:28 9,3 C 8,9 C 7,8 C 87 % 1014,9 hPa 0,0 l/m 0 min 0 min 0 W/m 9,7 km/h (2 Bft) 95,74 %
22.12.2018 17:30 9,3 C 8,9 C 7,8 C 87 % 1014,9 hPa 0,0 l/m 0 min 0 min 0 W/m 16,1 km/h (3 Bft) 97,87 %
22.12.2018 17:32 9,3 C 8,3 C 7,8 C 87 % 1015,0 hPa 0,0 l/m 0 min 0 min 0 W/m 12,9 km/h (3 Bft) 97,83 %
22.12.2018 17:34 9,3 C 8,3 C 7,8 C 87 % 1014,9 hPa 0,0 l/m 0 min 0 min 0 W/m 16,1 km/h (3 Bft) 97,87 %
22.12.2018 17:36 9,2 C 8,3 C 7,8 C 87 % 1015,0 hPa 0,0 l/m 0 min 0 min 0 W/m 16,1 km/h (3 Bft) 95,74 %
22.12.2018 17:38 9,2 C 8,3 C 7,8 C 87 % 1015,0 hPa 0,0 l/m 0 min 0 min 0 W/m 9,7 km/h (2 Bft) 95,74 %
22.12.2018 17:40 9,2 C 8,3 C 7,8 C 87 % 1014,9 hPa 0,0 l/m 0 min 0 min 0 W/m 9,7 km/h (2 Bft) 95,74 %
22.12.2018 17:42 9,2 C 8,3 C 7,8 C 87 % 1015,1 hPa 0,0 l/m 0 min 0 min 0 W/m 12,9 km/h (3 Bft) 95,74 %
22.12.2018 17:44 9,2 C 8,3 C 7,8 C 87 % 1015,0 hPa 0,0 l/m 0 min 0 min 0 W/m 16,1 km/h (3 Bft) 95,65 %
22.12.2018 17:46 9,2 C 8,3 C 7,8 C 87 % 1015,0 hPa 0,0 l/m 0 min 0 min 0 W/m 9,7 km/h (2 Bft) 97,87 %
22.12.2018 17:48 9,2 C 8,3 C 7,8 C 87 % 1014,9 hPa 0,0 l/m 0 min 0 min 0 W/m 16,1 km/h (3 Bft) 97,87 %
22.12.2018 17:50 9,2 C 8,3 C 7,8 C 87 % 1015,1 hPa 0,0 l/m 0 min 0 min 0 W/m 12,9 km/h (3 Bft) 97,87 %
22.12.2018 17:52 9,2 C 8,3 C 7,8 C 87 % 1015,1 hPa 0,0 l/m 0 min 0 min 0 W/m 12,9 km/h (3 Bft) 97,87 %
22.12.2018 17:54 9,2 C 8,3 C 7,8 C 87 % 1015,1 hPa 0,0 l/m 0 min 0 min 0 W/m 19,3 km/h (3 Bft) 93,48 %
22.12.2018 17:56 9,2 C 8,3 C 7,8 C 87 % 1015,1 hPa 0,0 l/m 0 min 0 min 0 W/m 19,3 km/h (3 Bft) 97,87 %
22.12.2018 17:58 9,2 C 8,9 C 7,8 C 87 % 1015,0 hPa 0,0 l/m 0 min 0 min 0 W/m 9,7 km/h (2 Bft) 97,87 %
22.12.2018 18:00 9,2 C 8,3 C 7,8 C 87 % 1015,1 hPa 0,0 l/m 0 min 0 min 0 W/m 16,1 km/h (3 Bft) 97,87 %
22.12.2018 18:02 9,2 C 8,3 C 7,8 C 87 % 1015,3 hPa 0,0 l/m 0 min 0 min 0 W/m 6,4 km/h (2 Bft) 97,87 %
22.12.2018 18:04 9,2 C 8,3 C 7,8 C 87 % 1015,4 hPa 0,0 l/m 0 min 0 min 0 W/m 19,3 km/h (3 Bft) 97,87 %
22.12.2018 18:08 9,2 C 8,3 C 7,8 C 87 % 1015,5 hPa 0,0 l/m 0 min 0 min 0 W/m 16,1 km/h (3 Bft) 97,85 %
22.12.2018 18:10 9,2 C 8,3 C 7,8 C 87 % 1015,5 hPa 0,0 l/m 0 min 0 min 0 W/m 16,1 km/h (3 Bft) 97,87 %
22.12.2018 18:12 9,1 C 8,3 C 7,8 C 88 % 1015,4 hPa 0,0 l/m 0 min 0 min 0 W/m 12,9 km/h (3 Bft) 100,00 %
22.12.2018 18:14 9,1 C 8,3 C 7,8 C 88 % 1015,5 hPa 0,0 l/m 0 min 0 min 0 W/m 9,7 km/h (2 Bft) 100,00 %
22.12.2018 18:16 9,1 C 8,3 C 7,8 C 88 % 1015,5 hPa 0,0 l/m 0 min 0 min 0 W/m 16,1 km/h (3 Bft) 95,74 %
22.12.2018 18:18 9,1 C 8,3 C 7,8 C 88 % 1015,5 hPa 0,0 l/m 0 min 0 min 0 W/m 12,9 km/h (3 Bft) 100,00 %
22.12.2018 18:20 9,1 C 8,3 C 7,8 C 88 % 1015,5 hPa 0,0 l/m 0 min 0 min 0 W/m 16,1 km/h (3 Bft) 100,00 %
22.12.2018 18:22 9,1 C 8,3 C 7,8 C 88 % 1015,5 hPa 0,0 l/m 0 min 0 min 0 W/m 16,1 km/h (3 Bft) 97,87 %
22.12.2018 18:24 9,1 C 8,3 C 7,8 C 88 % 1015,6 hPa 0,0 l/m 0 min 0 min 0 W/m 9,7 km/h (2 Bft) 100,00 %
22.12.2018 18:26 9,1 C 8,3 C 7,8 C 88 % 1015,7 hPa 0,0 l/m 0 min 0 min 0 W/m 9,7 km/h (2 Bft) 100,00 %
22.12.2018 18:28 9,1 C 8,3 C 7,8 C 88 % 1015,7 hPa 0,0 l/m 0 min 0 min 0 W/m 25,7 km/h (4 Bft) 100,00 %
22.12.2018 18:30 9,1 C 8,3 C 7,8 C 88 % 1015,7 hPa 0,0 l/m 0 min 0 min 0 W/m 12,9 km/h (3 Bft) 100,00 %
22.12.2018 18:32 9,1 C 8,3 C 7,8 C 88 % 1015,8 hPa 0,0 l/m 0 min 0 min 0 W/m 16,1 km/h (3 Bft) 100,00 %
22.12.2018 18:34 9,1 C 8,3 C 7,8 C 88 % 1015,8 hPa 0,0 l/m 0 min 0 min 0 W/m 12,9 km/h (3 Bft) 100,00 %
22.12.2018 18:36 9,1 C 8,3 C 7,8 C 88 % 1015,9 hPa 0,0 l/m 0 min 0 min 0 W/m 9,7 km/h (2 Bft) 100,00 %
22.12.2018 18:38 9,1 C 8,3 C 7,8 C 88 % 1015,9 hPa 0,0 l/m 0 min 0 min 0 W/m 22,5 km/h (4 Bft) 100,00 %
22.12.2018 18:40 9,2 C 8,3 C 7,8 C 88 % 1015,9 hPa 0,0 l/m 0 min 0 min 0 W/m 12,9 km/h (3 Bft) 100,00 %
22.12.2018 18:42 9,2 C 8,3 C 7,8 C 88 % 1016,0 hPa 0,0 l/m 0 min 0 min 0 W/m 16,1 km/h (3 Bft) 97,83 %
22.12.2018 18:44 9,1 C 8,3 C 7,8 C 88 % 1016,0 hPa 0,0 l/m 0 min 0 min 0 W/m 19,3 km/h (3 Bft) 100,00 %
22.12.2018 18:46 9,1 C 8,3 C 7,8 C 88 % 1015,9 hPa 0,0 l/m 0 min 0 min 0 W/m 12,9 km/h (3 Bft) 97,87 %
22.12.2018 18:48 9,1 C 8,3 C 7,8 C 88 % 1016,0 hPa 0,0 l/m 0 min 0 min 0 W/m 9,7 km/h (2 Bft) 100,00 %
22.12.2018 18:50 9,1 C 8,3 C 7,8 C 88 % 1016,1 hPa 0,0 l/m 0 min 0 min 0 W/m 16,1 km/h (3 Bft) 100,00 %
22.12.2018 18:52 9,1 C 8,3 C 7,8 C 88 % 1016,1 hPa 0,0 l/m 0 min 0 min 0 W/m 9,7 km/h (2 Bft) 97,87 %
22.12.2018 18:54 9,1 C 8,3 C 7,8 C 88 % 1016,1 hPa 0,0 l/m 0 min 0 min 0 W/m 12,9 km/h (3 Bft) 100,00 %
22.12.2018 18:56 9,1 C 8,3 C 7,8 C 88 % 1016,2 hPa 0,0 l/m 0 min 0 min 0 W/m 9,7 km/h (2 Bft) 97,87 %
22.12.2018 18:58 9,1 C 8,3 C 7,8 C 88 % 1016,2 hPa 0,0 l/m 0 min 0 min 0 W/m 9,7 km/h (2 Bft) 95,74 %
22.12.2018 19:00 9,1 C 8,3 C 7,8 C 88 % 1016,2 hPa 0,0 l/m 0 min 0 min 0 W/m 9,7 km/h (2 Bft) 100,00 %
22.12.2018 19:02 9,1 C 8,3 C 7,8 C 88 % 1016,3 hPa 0,0 l/m 0 min 0 min 0 W/m 9,7 km/h (2 Bft) 100,00 %
22.12.2018 19:04 9,1 C 8,3 C 7,8 C 88 % 1016,3 hPa 0,0 l/m 0 min 0 min 0 W/m 9,7 km/h (2 Bft) 95,74 %
22.12.2018 19:06 9,1 C 8,3 C 7,8 C 88 % 1016,5 hPa 0,0 l/m 0 min 0 min 0 W/m 16,1 km/h (3 Bft) 97,83 %
22.12.2018 19:08 9,0 C 8,3 C 7,8 C 88 % 1016,5 hPa 0,0 l/m 0 min 0 min 0 W/m 12,9 km/h (3 Bft) 93,62 %
22.12.2018 19:10 9,0 C 8,3 C 7,8 C 88 % 1016,4 hPa 0,0 l/m 0 min 0 min 0 W/m 12,9 km/h (3 Bft) 95,74 %
22.12.2018 19:12 9,0 C 8,3 C 7,8 C 88 % 1016,5 hPa 0,0 l/m 0 min 0 min 0 W/m 16,1 km/h (3 Bft) 97,87 %
22.12.2018 19:14 9,0 C 8,3 C 7,8 C 88 % 1016,5 hPa 0,0 l/m 0 min 0 min 0 W/m 12,9 km/h (3 Bft) 97,87 %
22.12.2018 19:16 9,0 C 8,3 C 7,8 C 88 % 1016,6 hPa 0,0 l/m 0 min 0 min 0 W/m 9,7 km/h (2 Bft) 97,83 %
22.12.2018 19:18 9,0 C 8,3 C 7,8 C 88 % 1016,7 hPa 0,0 l/m 0 min 0 min 0 W/m 9,7 km/h (2 Bft) 97,87 %
22.12.2018 19:20 9,0 C 8,3 C 7,8 C 89 % 1016,6 hPa 0,0 l/m 0 min 0 min 0 W/m 16,1 km/h (3 Bft) 97,87 %
22.12.2018 19:22 9,0 C 8,3 C 7,8 C 89 % 1016,6 hPa 0,0 l/m 0 min 0 min 0 W/m 9,7 km/h (2 Bft) 97,87 %
22.12.2018 19:24 8,9 C 8,3 C 7,8 C 89 % 1016,6 hPa 0,0 l/m 0 min 0 min 0 W/m 9,7 km/h (2 Bft) 97,87 %
22.12.2018 19:26 8,9 C 8,3 C 7,2 C 89 % 1016,6 hPa 0,0 l/m 0 min 0 min 0 W/m 6,4 km/h (2 Bft) 95,74 %
22.12.2018 19:28 8,9 C 8,3 C 7,2 C 89 % 1016,6 hPa 0,0 l/m 0 min 0 min 0 W/m 9,7 km/h (2 Bft) 95,65 %
22.12.2018 19:30 8,9 C 8,3 C 7,2 C 89 % 1016,6 hPa 0,0 l/m 0 min 0 min 0 W/m 9,7 km/h (2 Bft) 95,74 %
22.12.2018 19:32 8,9 C 7,8 C 7,2 C 89 % 1016,7 hPa 0,0 l/m 0 min 0 min 0 W/m 6,4 km/h (2 Bft) 95,74 %
22.12.2018 19:34 8,9 C 7,8 C 7,2 C 89 % 1016,7 hPa 0,0 l/m 0 min 0 min 0 W/m 9,7 km/h (2 Bft) 95,74 %
22.12.2018 19:36 8,9 C 7,8 C 7,2 C 89 % 1016,7 hPa 0,0 l/m 0 min 0 min 0 W/m 9,7 km/h (2 Bft) 95,74 %
22.12.2018 19:38 8,8 C 7,8 C 7,2 C 89 % 1016,8 hPa 0,0 l/m 0 min 0 min 0 W/m 6,4 km/h (2 Bft) 92,45 %
22.12.2018 19:40 8,8 C 8,3 C 7,2 C 89 % 1016,8 hPa 0,0 l/m 0 min 0 min 0 W/m 9,7 km/h (2 Bft) 93,62 %
22.12.2018 19:42 8,8 C 8,3 C 7,2 C 89 % 1016,7 hPa 0,0 l/m 0 min 0 min 0 W/m 12,9 km/h (3 Bft) 93,62 %
22.12.2018 19:44 8,8 C 7,8 C 7,2 C 89 % 1016,7 hPa 0,0 l/m 0 min 0 min 0 W/m 9,7 km/h (2 Bft) 93,48 %
22.12.2018 19:46 8,8 C 7,8 C 7,2 C 89 % 1016,7 hPa 0,0 l/m 0 min 0 min 0 W/m 6,4 km/h (2 Bft) 95,74 %
22.12.2018 19:48 8,8 C 7,8 C 7,2 C 89 % 1016,7 hPa 0,0 l/m 0 min 0 min 0 W/m 9,7 km/h (2 Bft) 95,74 %
22.12.2018 19:50 8,8 C 7,8 C 7,2 C 89 % 1016,7 hPa 0,0 l/m 0 min 0 min 0 W/m 12,9 km/h (3 Bft) 89,36 %
22.12.2018 19:52 8,7 C 8,3 C 7,2 C 89 % 1016,7 hPa 0,0 l/m 0 min 0 min 0 W/m 12,9 km/h (3 Bft) 93,62 %
22.12.2018 19:54 8,7 C 8,3 C 7,2 C 89 % 1016,7 hPa 0,0 l/m 0 min 0 min 0 W/m 12,9 km/h (3 Bft) 95,65 %
22.12.2018 19:56 8,7 C 7,8 C 7,2 C 89 % 1016,8 hPa 0,0 l/m 0 min 2 min 0 W/m 9,7 km/h (2 Bft) 93,62 %
22.12.2018 19:58 8,8 C 7,8 C 7,2 C 89 % 1016,8 hPa 0,0 l/m 0 min 2 min 0 W/m 16,1 km/h (3 Bft) 95,74 %
22.12.2018 20:00 8,8 C 7,8 C 6,7 C 90 % 1016,7 hPa 0,0 l/m 0 min 2 min 0 W/m 9,7 km/h (2 Bft) 93,62 %
22.12.2018 20:02 8,8 C 7,2 C 6,7 C 90 % 1016,7 hPa 0,0 l/m 0 min 2 min 0 W/m 9,7 km/h (2 Bft) 95,74 %
22.12.2018 20:04 8,8 C 7,2 C 6,7 C 90 % 1016,7 hPa 0,0 l/m 0 min 2 min 0 W/m 9,7 km/h (2 Bft) 93,62 %
22.12.2018 20:06 8,8 C 7,2 C 6,7 C 90 % 1016,7 hPa 0,0 l/m 0 min 2 min 0 W/m 9,7 km/h (2 Bft) 89,36 %
22.12.2018 20:08 8,7 C 7,2 C 6,7 C 90 % 1016,7 hPa 0,0 l/m 0 min 2 min 0 W/m 6,4 km/h (2 Bft) 89,13 %
22.12.2018 20:10 8,7 C 7,2 C 6,7 C 90 % 1016,8 hPa 0,0 l/m 0 min 0 min 0 W/m 6,4 km/h (2 Bft) 93,62 %
22.12.2018 20:12 8,7 C 7,2 C 6,7 C 90 % 1016,8 hPa 0,0 l/m 0 min 2 min 0 W/m 6,4 km/h (2 Bft) 97,87 %
22.12.2018 20:14 8,7 C 7,2 C 6,7 C 90 % 1016,8 hPa 0,2 l/m 0 min 0 min 0 W/m 12,9 km/h (3 Bft) 95,74 %
22.12.2018 20:16 8,7 C 7,2 C 6,7 C 90 % 1016,8 hPa 0,0 l/m 0 min 2 min 0 W/m 9,7 km/h (2 Bft) 97,87 %
22.12.2018 20:18 8,7 C 7,2 C 6,7 C 90 % 1016,8 hPa 0,0 l/m 0 min 0 min 0 W/m 6,4 km/h (2 Bft) 95,74 %
22.12.2018 20:20 8,7 C 7,2 C 6,7 C 90 % 1016,8 hPa 0,0 l/m 0 min 0 min 0 W/m 9,7 km/h (2 Bft) 95,65 %
22.12.2018 20:22 8,7 C 7,2 C 6,7 C 91 % 1016,9 hPa 0,0 l/m 0 min 0 min 0 W/m 16,1 km/h (3 Bft) 91,49 %
22.12.2018 20:24 8,6 C 7,2 C 6,7 C 91 % 1016,8 hPa 0,0 l/m 0 min 2 min 0 W/m 9,7 km/h (2 Bft) 95,74 %
22.12.2018 20:26 8,6 C 7,2 C 6,7 C 91 % 1016,8 hPa 0,0 l/m 0 min 2 min 0 W/m 9,7 km/h (2 Bft) 97,87 %
22.12.2018 20:28 8,6 C 7,2 C 6,7 C 91 % 1016,8 hPa 0,0 l/m 0 min 2 min 0 W/m 9,7 km/h (2 Bft) 95,74 %
22.12.2018 20:30 8,6 C 7,2 C 6,7 C 91 % 1016,8 hPa 0,0 l/m 0 min 2 min 0 W/m 9,7 km/h (2 Bft) 97,83 %
22.12.2018 20:32 8,6 C 7,2 C 6,7 C 91 % 1016,9 hPa 0,0 l/m 0 min 2 min 0 W/m 9,7 km/h (2 Bft) 95,74 %
22.12.2018 20:34 8,6 C 7,2 C 6,7 C 91 % 1016,9 hPa 0,0 l/m 0 min 2 min 0 W/m 6,4 km/h (2 Bft) 97,87 %
22.12.2018 20:36 8,6 C 7,2 C 6,7 C 91 % 1016,9 hPa 0,0 l/m 0 min 2 min 0 W/m 9,7 km/h (2 Bft) 97,87 %
22.12.2018 20:38 8,6 C 7,2 C 6,7 C 91 % 1016,9 hPa 0,0 l/m 0 min 2 min 0 W/m 9,7 km/h (2 Bft) 100,00 %
22.12.2018 20:40 8,6 C 7,2 C 6,7 C 91 % 1016,9 hPa 0,0 l/m 0 min 2 min 0 W/m 6,4 km/h (2 Bft) 100,00 %
22.12.2018 20:42 8,5 C 7,2 C 6,7 C 91 % 1016,9 hPa 0,0 l/m 0 min 2 min 0 W/m 6,4 km/h (2 Bft) 100,00 %
22.12.2018 20:44 8,5 C 7,8 C 6,7 C 91 % 1016,9 hPa 0,0 l/m 0 min 0 min 0 W/m 9,7 km/h (2 Bft) 100,00 %
22.12.2018 20:46 8,5 C 7,8 C 6,7 C 91 % 1016,9 hPa 0,0 l/m 0 min 0 min 0 W/m 9,7 km/h (2 Bft) 97,87 %
22.12.2018 20:48 8,5 C 7,8 C 7,2 C 91 % 1016,9 hPa 0,0 l/m 0 min 2 min 0 W/m 6,4 km/h (2 Bft) 100,00 %
22.12.2018 20:50 8,5 C 7,8 C 6,7 C 91 % 1016,9 hPa 0,0 l/m 0 min 0 min 0 W/m 9,7 km/h (2 Bft) 100,00 %
22.12.2018 20:52 8,5 C 7,8 C 6,7 C 91 % 1016,9 hPa 0,0 l/m 0 min 0 min 0 W/m 9,7 km/h (2 Bft) 100,00 %
22.12.2018 20:54 8,5 C 7,8 C 6,7 C 91 % 1016,9 hPa 0,0 l/m 0 min 0 min 0 W/m 9,7 km/h (2 Bft) 100,00 %
22.12.2018 20:56 8,5 C 7,8 C 6,7 C 91 % 1016,9 hPa 0,0 l/m 0 min 0 min 0 W/m 6,4 km/h (2 Bft) 100,00 %
22.12.2018 20:58 8,4 C 7,8 C 6,7 C 91 % 1016,9 hPa 0,0 l/m 0 min 0 min 0 W/m 9,7 km/h (2 Bft) 100,00 %
22.12.2018 21:00 8,4 C 7,8 C 6,7 C 91 % 1016,9 hPa 0,0 l/m 0 min 0 min 0 W/m 9,7 km/h (2 Bft) 97,87 %
22.12.2018 21:02 8,4 C 7,8 C 7,2 C 91 % 1017,0 hPa 0,0 l/m 0 min 0 min 0 W/m 9,7 km/h (2 Bft) 100,00 %
22.12.2018 21:04 8,4 C 7,8 C 7,2 C 91 % 1017,0 hPa 0,0 l/m 0 min 0 min 0 W/m 16,1 km/h (3 Bft) 100,00 %
22.12.2018 21:06 8,4 C 7,8 C 7,2 C 91 % 1017,0 hPa 0,0 l/m 0 min 0 min 0 W/m 9,7 km/h (2 Bft) 100,00 %
22.12.2018 21:08 8,4 C 7,8 C 7,2 C 91 % 1017,0 hPa 0,0 l/m 0 min 0 min 0 W/m 6,4 km/h (2 Bft) 100,00 %
22.12.2018 21:10 8,4 C 7,8 C 7,2 C 91 % 1017,0 hPa 0,0 l/m 0 min 0 min 0 W/m 16,1 km/h (3 Bft) 100,00 %
22.12.2018 21:12 8,4 C 7,8 C 7,2 C 91 % 1017,1 hPa 0,0 l/m 0 min 0 min 0 W/m 9,7 km/h (2 Bft) 100,00 %
22.12.2018 21:14 8,4 C 7,8 C 7,2 C 91 % 1017,0 hPa 0,0 l/m 0 min 0 min 0 W/m 12,9 km/h (3 Bft) 100,00 %
22.12.2018 21:16 8,4 C 7,8 C 7,2 C 91 % 1017,1 hPa 0,0 l/m 0 min 0 min 0 W/m 16,1 km/h (3 Bft) 100,00 %
22.12.2018 21:18 8,4 C 7,8 C 7,2 C 91 % 1017,1 hPa 0,0 l/m 0 min 0 min 0 W/m 9,7 km/h (2 Bft) 100,00 %
22.12.2018 21:20 8,4 C 7,8 C 7,2 C 91 % 1017,1 hPa 0,0 l/m 0 min 0 min 0 W/m 9,7 km/h (2 Bft) 100,00 %
22.12.2018 21:22 8,4 C 7,8 C 7,2 C 91 % 1017,1 hPa 0,0 l/m 0 min 0 min 0 W/m 12,9 km/h (3 Bft) 100,00 %
22.12.2018 21:24 8,4 C 7,8 C 7,2 C 91 % 1017,1 hPa 0,0 l/m 0 min 0 min 0 W/m 9,7 km/h (2 Bft) 100,00 %
22.12.2018 21:26 8,4 C 7,8 C 7,2 C 91 % 1017,1 hPa 0,0 l/m 0 min 0 min 0 W/m 9,7 km/h (2 Bft) 100,00 %
22.12.2018 21:28 8,4 C 7,8 C 7,2 C 91 % 1017,1 hPa 0,0 l/m 0 min 0 min 0 W/m 9,7 km/h (2 Bft) 100,00 %
22.12.2018 21:30 8,4 C 7,8 C 7,2 C 91 % 1017,1 hPa 0,0 l/m 0 min 0 min 0 W/m 9,7 km/h (2 Bft) 100,00 %
22.12.2018 21:32 8,4 C 7,8 C 7,2 C 91 % 1017,1 hPa 0,0 l/m 0 min 0 min 0 W/m 9,7 km/h (2 Bft) 100,00 %
22.12.2018 21:34 8,4 C 7,8 C 7,2 C 91 % 1017,2 hPa 0,0 l/m 0 min 0 min 0 W/m 16,1 km/h (3 Bft) 100,00 %
22.12.2018 21:36 8,4 C 7,8 C 7,2 C 91 % 1017,2 hPa 0,0 l/m 0 min 0 min 0 W/m 12,9 km/h (3 Bft) 100,00 %
22.12.2018 21:38 8,4 C 7,8 C 7,2 C 91 % 1017,3 hPa 0,0 l/m 0 min 0 min 0 W/m 16,1 km/h (3 Bft) 93,62 %
22.12.2018 21:40 8,4 C 7,8 C 7,2 C 91 % 1017,3 hPa 0,0 l/m 0 min 0 min 0 W/m 6,4 km/h (2 Bft) 97,83 %
22.12.2018 21:42 8,4 C 7,8 C 7,2 C 91 % 1017,3 hPa 0,0 l/m 0 min 0 min 0 W/m 9,7 km/h (2 Bft) 97,87 %
22.12.2018 21:44 8,4 C 7,8 C 7,2 C 91 % 1017,2 hPa 0,0 l/m 0 min 0 min 0 W/m 9,7 km/h (2 Bft) 100,00 %
22.12.2018 21:46 8,4 C 7,8 C 7,2 C 91 % 1017,3 hPa 0,0 l/m 0 min 0 min 0 W/m 6,4 km/h (2 Bft) 97,87 %
22.12.2018 21:48 8,4 C 7,8 C 7,2 C 90 % 1017,3 hPa 0,0 l/m 0 min 0 min 0 W/m 9,7 km/h (2 Bft) 100,00 %
22.12.2018 21:50 8,4 C 7,8 C 7,2 C 90 % 1017,3 hPa 0,0 l/m 0 min 0 min 0 W/m 12,9 km/h (3 Bft) 100,00 %
22.12.2018 21:52 8,4 C 7,8 C 7,2 C 91 % 1017,3 hPa 0,0 l/m 0 min 0 min 0 W/m 9,7 km/h (2 Bft) 100,00 %
22.12.2018 21:54 8,4 C 7,8 C 7,2 C 90 % 1017,3 hPa 0,0 l/m 0 min 0 min 0 W/m 16,1 km/h (3 Bft) 100,00 %
22.12.2018 21:56 8,4 C 7,8 C 7,2 C 91 % 1017,3 hPa 0,0 l/m 0 min 0 min 0 W/m 6,4 km/h (2 Bft) 100,00 %
22.12.2018 21:58 8,4 C 7,8 C 7,2 C 91 % 1017,4 hPa 0,0 l/m 0 min 0 min 0 W/m 19,3 km/h (3 Bft) 100,00 %
22.12.2018 22:00 8,4 C 7,8 C 7,2 C 91 % 1017,4 hPa 0,0 l/m 0 min 0 min 0 W/m 16,1 km/h (3 Bft) 95,74 %
22.12.2018 22:02 8,4 C 7,8 C 7,2 C 90 % 1017,5 hPa 0,0 l/m 0 min 0 min 0 W/m 12,9 km/h (3 Bft) 100,00 %
22.12.2018 22:04 8,4 C 7,8 C 7,2 C 90 % 1017,4 hPa 0,0 l/m 0 min 0 min 0 W/m 6,4 km/h (2 Bft) 97,83 %
22.12.2018 22:06 8,4 C 7,8 C 7,2 C 90 % 1017,5 hPa 0,0 l/m 0 min 0 min 0 W/m 12,9 km/h (3 Bft) 97,87 %
22.12.2018 22:08 8,4 C 7,8 C 7,2 C 90 % 1017,5 hPa 0,0 l/m 0 min 0 min 0 W/m 16,1 km/h (3 Bft) 97,87 %
22.12.2018 22:10 8,4 C 7,8 C 7,2 C 90 % 1017,5 hPa 0,0 l/m 0 min 0 min 0 W/m 12,9 km/h (3 Bft) 100,00 %
22.12.2018 22:12 8,3 C 7,8 C 6,7 C 90 % 1017,5 hPa 0,0 l/m 0 min 0 min 0 W/m 19,3 km/h (3 Bft) 100,00 %
22.12.2018 22:14 8,3 C 7,8 C 6,7 C 90 % 1017,6 hPa 0,0 l/m 0 min 0 min 0 W/m 9,7 km/h (2 Bft) 97,87 %
22.12.2018 22:16 8,3 C 7,8 C 6,7 C 90 % 1017,6 hPa 0,0 l/m 0 min 0 min 0 W/m 9,7 km/h (2 Bft) 95,65 %
22.12.2018 22:18 8,3 C 7,8 C 6,7 C 90 % 1017,6 hPa 0,0 l/m 0 min 0 min 0 W/m 12,9 km/h (3 Bft) 97,87 %
22.12.2018 22:20 8,3 C 7,8 C 6,7 C 90 % 1017,6 hPa 0,0 l/m 0 min 0 min 0 W/m 6,4 km/h (2 Bft) 97,87 %
22.12.2018 22:22 8,3 C 7,2 C 6,7 C 90 % 1017,7 hPa 0,0 l/m 0 min 0 min 0 W/m 12,9 km/h (3 Bft) 93,62 %
22.12.2018 22:24 8,3 C 7,2 C 6,7 C 90 % 1017,7 hPa 0,0 l/m 0 min 0 min 0 W/m 9,7 km/h (2 Bft) 95,74 %
22.12.2018 22:26 8,2 C 7,2 C 6,7 C 90 % 1017,7 hPa 0,0 l/m 0 min 0 min 0 W/m 16,1 km/h (3 Bft) 95,65 %
22.12.2018 22:28 8,2 C 7,2 C 6,7 C 90 % 1017,6 hPa 0,0 l/m 0 min 0 min 0 W/m 16,1 km/h (3 Bft) 95,74 %
22.12.2018 22:30 8,2 C 7,2 C 6,7 C 90 % 1017,7 hPa 0,0 l/m 0 min 0 min 0 W/m 12,9 km/h (3 Bft) 93,62 %
22.12.2018 22:32 8,2 C 7,2 C 6,7 C 91 % 1017,8 hPa 0,0 l/m 0 min 0 min 0 W/m 12,9 km/h (3 Bft) 95,74 %
22.12.2018 22:34 8,2 C 7,2 C 6,7 C 91 % 1017,8 hPa 0,0 l/m 0 min 0 min 0 W/m 9,7 km/h (2 Bft) 95,74 %
22.12.2018 22:36 8,2 C 7,2 C 6,7 C 91 % 1017,8 hPa 0,0 l/m 0 min 0 min 0 W/m 9,7 km/h (2 Bft) 93,62 %
22.12.2018 22:38 8,1 C 7,2 C 6,7 C 91 % 1017,8 hPa 0,0 l/m 0 min 0 min 0 W/m 9,7 km/h (2 Bft) 95,65 %
22.12.2018 22:40 8,1 C 7,2 C 6,7 C 91 % 1017,8 hPa 0,0 l/m 0 min 0 min 0 W/m 16,1 km/h (3 Bft) 93,62 %
22.12.2018 22:42 8,1 C 7,2 C 6,7 C 91 % 1017,9 hPa 0,0 l/m 0 min 0 min 0 W/m 9,7 km/h (2 Bft) 93,62 %
22.12.2018 22:44 8,1 C 7,2 C 6,7 C 91 % 1017,8 hPa 0,0 l/m 0 min 0 min 0 W/m 12,9 km/h (3 Bft) 97,87 %
22.12.2018 22:46 8,1 C 7,8 C 6,7 C 91 % 1017,8 hPa 0,0 l/m 0 min 0 min 0 W/m 12,9 km/h (3 Bft) 91,49 %
22.12.2018 22:48 8,1 C 7,8 C 6,7 C 91 % 1017,9 hPa 0,0 l/m 0 min 0 min 0 W/m 16,1 km/h (3 Bft) 93,62 %
22.12.2018 22:50 8,1 C 7,8 C 6,7 C 91 % 1018,0 hPa 0,0 l/m 0 min 0 min 0 W/m 12,9 km/h (3 Bft) 93,48 %
22.12.2018 22:52 8,1 C 7,8 C 6,7 C 91 % 1018,0 hPa 0,0 l/m 0 min 0 min 0 W/m 9,7 km/h (2 Bft) 93,62 %
22.12.2018 22:54 8,1 C 7,2 C 6,7 C 91 % 1018,0 hPa 0,0 l/m 0 min 0 min 0 W/m 16,1 km/h (3 Bft) 93,62 %
22.12.2018 22:56 8,1 C 7,2 C 6,7 C 91 % 1018,0 hPa 0,0 l/m 0 min 0 min 0 W/m 9,7 km/h (2 Bft) 93,62 %
22.12.2018 22:58 8,1 C 7,2 C 6,7 C 91 % 1018,0 hPa 0,0 l/m 0 min 0 min 0 W/m 16,1 km/h (3 Bft) 91,49 %
22.12.2018 23:00 8,1 C 7,2 C 6,7 C 91 % 1018,2 hPa 0,0 l/m 0 min 0 min 0 W/m 6,4 km/h (2 Bft) 89,36 %
22.12.2018 23:02 8,1 C 7,2 C 6,7 C 91 % 1018,2 hPa 0,0 l/m 0 min 0 min 0 W/m 12,9 km/h (3 Bft) 93,48 %
22.12.2018 23:04 8,1 C 7,2 C 6,7 C 91 % 1018,2 hPa 0,0 l/m 0 min 0 min 0 W/m 19,3 km/h (3 Bft) 95,74 %
22.12.2018 23:06 8,1 C 7,2 C 6,7 C 92 % 1018,2 hPa 0,0 l/m 0 min 0 min 0 W/m 6,4 km/h (2 Bft) 97,87 %
22.12.2018 23:08 8,1 C 7,2 C 6,7 C 92 % 1018,2 hPa 0,0 l/m 0 min 0 min 0 W/m 6,4 km/h (2 Bft) 95,74 %
22.12.2018 23:10 8,1 C 7,2 C 6,7 C 92 % 1018,2 hPa 0,0 l/m 0 min 0 min 0 W/m 6,4 km/h (2 Bft) 97,87 %
22.12.2018 23:12 8,1 C 7,2 C 6,7 C 92 % 1018,3 hPa 0,0 l/m 0 min 0 min 0 W/m 9,7 km/h (2 Bft) 95,74 %
22.12.2018 23:14 8,1 C 7,2 C 6,7 C 92 % 1018,2 hPa 0,0 l/m 0 min 0 min 0 W/m 16,1 km/h (3 Bft) 95,65 %
22.12.2018 23:16 8,1 C 7,2 C 6,7 C 92 % 1018,3 hPa 0,0 l/m 0 min 0 min 0 W/m 16,1 km/h (3 Bft) 97,87 %
22.12.2018 23:18 8,1 C 7,2 C 6,7 C 92 % 1018,3 hPa 0,0 l/m 0 min 0 min 0 W/m 22,5 km/h (4 Bft) 95,74 %
22.12.2018 23:20 8,1 C 7,2 C 6,7 C 92 % 1018,4 hPa 0,0 l/m 0 min 0 min 0 W/m 12,9 km/h (3 Bft) 95,74 %
22.12.2018 23:22 8,1 C 7,2 C 6,7 C 92 % 1018,4 hPa 0,0 l/m 0 min 0 min 0 W/m 9,7 km/h (2 Bft) 97,87 %
22.12.2018 23:24 8,1 C 7,2 C 6,7 C 92 % 1018,4 hPa 0,0 l/m 0 min 0 min 0 W/m 16,1 km/h (3 Bft) 95,74 %
22.12.2018 23:26 8,1 C 7,2 C 6,7 C 92 % 1018,5 hPa 0,0 l/m 0 min 0 min 0 W/m 16,1 km/h (3 Bft) 97,87 %
22.12.2018 23:28 8,1 C 7,2 C 6,7 C 92 % 1018,4 hPa 0,0 l/m 0 min 0 min 0 W/m 16,1 km/h (3 Bft) 97,87 %
22.12.2018 23:30 8,1 C 7,2 C 6,7 C 92 % 1018,4 hPa 0,0 l/m 0 min 0 min 0 W/m 16,1 km/h (3 Bft) 97,87 %
22.12.2018 23:32 8,1 C 7,2 C 6,7 C 92 % 1018,5 hPa 0,0 l/m 0 min 0 min 0 W/m 19,3 km/h (3 Bft) 97,87 %
22.12.2018 23:34 8,1 C 7,2 C 6,7 C 92 % 1018,6 hPa 0,0 l/m 0 min 0 min 0 W/m 12,9 km/h (3 Bft) 97,87 %
22.12.2018 23:36 8,1 C 7,2 C 6,7 C 92 % 1018,6 hPa 0,0 l/m 0 min 0 min 0 W/m 16,1 km/h (3 Bft) 95,65 %
22.12.2018 23:38 8,1 C 7,2 C 6,7 C 92 % 1018,6 hPa 0,0 l/m 0 min 0 min 0 W/m 12,9 km/h (3 Bft) 97,87 %
22.12.2018 23:40 8,1 C 7,8 C 6,7 C 92 % 1018,6 hPa 0,0 l/m 0 min 0 min 0 W/m 12,9 km/h (3 Bft) 97,87 %
22.12.2018 23:42 8,1 C 7,8 C 6,7 C 92 % 1018,6 hPa 0,0 l/m 0 min 0 min 0 W/m 12,9 km/h (3 Bft) 97,87 %
22.12.2018 23:44 8,1 C 7,8 C 6,7 C 92 % 1018,6 hPa 0,0 l/m 0 min 0 min 0 W/m 12,9 km/h (3 Bft) 97,87 %
22.12.2018 23:46 8,1 C 7,8 C 6,7 C 92 % 1018,5 hPa 0,0 l/m 0 min 0 min 0 W/m 9,7 km/h (2 Bft) 97,87 %
22.12.2018 23:48 8,1 C 7,8 C 6,7 C 92 % 1018,6 hPa 0,0 l/m 0 min 0 min 0 W/m 12,9 km/h (3 Bft) 97,83 %
22.12.2018 23:50 8,1 C 7,8 C 6,7 C 92 % 1018,6 hPa 0,0 l/m 0 min 0 min 0 W/m 12,9 km/h (3 Bft) 100,00 %
22.12.2018 23:52 8,1 C 7,8 C 6,7 C 92 % 1018,6 hPa 0,0 l/m 0 min 0 min 0 W/m 12,9 km/h (3 Bft) 100,00 %
22.12.2018 23:54 8,1 C 7,8 C 6,7 C 92 % 1018,5 hPa 0,0 l/m 0 min 0 min 0 W/m 9,7 km/h (2 Bft) 100,00 %
22.12.2018 23:56 8,1 C 7,8 C 6,7 C 92 % 1018,6 hPa 0,0 l/m 0 min 0 min 0 W/m 9,7 km/h (2 Bft) 100,00 %
22.12.2018 23:58 8,1 C 7,8 C 6,7 C 92 % 1018,5 hPa 0,0 l/m 0 min 0 min 0 W/m 12,9 km/h (3 Bft) 97,87 %
_ Min-Zeit 22:38 07:20 07:00 14:28 04:48 - - - - 02:56 20:08
Minimum _ 8,1 C 6,7 C 6,7 C 84 % 1003,9 hPa - - - - 6,4 km/h (2 Bft) 89,13 %
_ Max-Zeit 13:52 12:28 00:50 05:04 23:34 02:16 09:50 05:19 12:22 07:02 00:00
Maximum _ 10,6 C 13,9 C 9,4 C 94 % 1018,6 hPa 0,2 l/m 2 min 5 min 298 W/m 41,8 km/h
O (6 Bft)
100,00 %
Durchschnitt _ 9,5 C 8,7 C 8,0 C 90 % 1010,9 hPa #3,6 l/m #1:06 h #5:38 h 72 W/m 17,1 km/h (3 Bft) 97,39 %
© 2018 W. Hausmann